DB0MOE-6 Weather Reports


time (UTC)temp
F
wind
direction
speed
knots
gust
knots
rain 1hr
in
rain 24hr
in
rain mn
in
humidity
%
barometer
mb
20260505212721 57 150 0.9 2.6 0.00 0.33 0.33 82 988.4
20260505212621 57 181 0.9 1.7 0.00 0.33 0.33 82 988.3
20260505212521 57 113 0.9 1.7 0.00 0.33 0.33 82 988.4
20260505212421 57 78 0.9 1.7 0.00 0.33 0.33 82 988.5
20260505212321 57 135 0.9 4.3 0.00 0.33 0.33 82 988.5
20260505212221 57 152 0.9 4.3 0.00 0.33 0.33 82 988.4
20260505212121 57 117 0.0 4.3 0.00 0.33 0.33 83 988.5
20260505212021 57 112 0.9 0.9 0.00 0.33 0.33 83 988.6
20260505211921 57 112 0.0 0.9 0.00 0.33 0.33 82 988.3
20260505211823 57 112 0.9 0.9 0.00 0.33 0.33 82 988.5
20260505211723 57 112 0.0 0.9 0.00 0.33 0.33 83 988.4
20260505211623 57 110 0.0 1.7 0.00 0.33 0.33 82 988.5
20260505211523 57 60 0.9 1.7 0.00 0.33 0.33 82 988.5
20260505211422 57 55 0.9 1.7 0.00 0.33 0.33 81 988.5
20260505211322 57 128 0.0 1.7 0.00 0.33 0.33 81 988.5
20260505211222 57 172 0.9 1.7 0.00 0.33 0.33 81 988.5
20260505211122 57 121 0.9 2.6 0.00 0.33 0.33 81 988.5
20260505211022 57 135 0.9 2.6 0.00 0.33 0.33 82 988.5
20260505210922 57 130 0.9 1.7 0.00 0.33 0.33 82 988.4
20260505210822 57 123 0.9 1.7 0.00 0.33 0.33 82 988.3
20260505210722 57 263 0.9 1.7 0.00 0.33 0.33 82 988.5
20260505210622 57 41 0.0 1.7 0.00 0.33 0.33 83 988.5
20260505210522 57 76 0.0 1.7 0.00 0.33 0.33 83 988.3
20260505210422 57 95 0.9 1.7 0.00 0.33 0.33 83 988.4
20260505210322 57 112 0.0 0.9 0.00 0.33 0.33 84 988.4
20260505210222 57 68 0.9 0.9 0.00 0.33 0.33 83 988.4
20260505210122 57 45 0.9 0.9 0.00 0.33 0.33 84 988.6
20260505210022 57 73 0.0 0.9 0.00 0.33 0.33 83 988.5
20260505205922 57 304 0.0 0.9 0.00 0.33 0.33 83 988.5
20260505205822 57 274 0.0 0.9 0.00 0.33 0.33 83 988.4
20260505205722 57 112 0.9 4.3 0.00 0.33 0.33 82 988.2
20260505205622 57 146 0.9 4.3 0.00 0.33 0.33 83 988.4
20260505205522 57 63 0.0 1.7 0.00 0.33 0.33 83 988.5
20260505205422 57 45 0.0 0.0 0.00 0.33 0.33 83 988.3
20260505205322 57 68 0.0 0.0 0.00 0.33 0.33 83 988.4
20260505205222 57 68 0.0 5.2 0.00 0.33 0.33 82 988.4
20260505205122 57 77 0.9 5.2 0.00 0.33 0.33 82 988.4
20260505205021 57 135 0.9 2.6 0.00 0.33 0.33 82 988.2
20260505204921 57 135 0.9 2.6 0.00 0.33 0.33 82 988.3
20260505204821 57 131 0.9 2.6 0.00 0.33 0.33 82 988.3
20260505204721 57 42 0.9 1.7 0.00 0.33 0.33 83 988.3
20260505204621 57 283 0.0 1.7 0.00 0.33 0.33 84 988.3
20260505204521 57 85 0.9 1.7 0.00 0.33 0.33 83 988.4
20260505204421 57 340 0.0 1.7 0.00 0.33 0.33 84 988.4
20260505204321 58 228 0.9 1.7 0.00 0.33 0.33 83 988.3
20260505204221 58 119 0.9 1.7 0.00 0.33 0.33 83 988.4
20260505204121 58 112 0.9 1.7 0.00 0.33 0.33 82 988.5
20260505204021 58 123 0.9 1.7 0.00 0.33 0.33 83 988.3
20260505203921 58 112 0.0 1.7 0.00 0.33 0.33 83 988.3
20260505203821 58 111 0.0 2.6 0.00 0.33 0.33 83 988.3
20260505203721 58 33 0.9 2.6 0.00 0.33 0.33 82 988.2
20260505203621 57 91 0.9 2.6 0.00 0.33 0.33 82 988.2
20260505203523 57 135 0.9 2.6 0.00 0.33 0.33 83 988.3
20260505203423 57 117 0.0 2.6 0.00 0.33 0.33 84 988.3
20260505203323 57 112 0.9 1.7 0.00 0.33 0.33 84 988.3
20260505203223 57 112 0.9 1.7 0.00 0.33 0.33 84 988.3
20260505203123 57 122 0.9 1.7 0.00 0.33 0.33 84 988.3
20260505203023 57 117 0.0 1.7 0.00 0.33 0.33 84 988.4
20260505202922 57 112 0.9 1.7 0.00 0.33 0.33 84 988.5
20260505202822 57 127 0.9 1.7 0.00 0.33 0.33 85 988.4
20260505202722 57 112 0.9 1.7 0.00 0.33 0.33 85 988.4
20260505202622 57 202 0.0 1.7 0.00 0.33 0.33 85 988.4
20260505202522 57 15 0.9 0.9 0.00 0.33 0.33 84 988.5
20260505202422 57 126 0.9 4.3 0.00 0.33 0.33 85 988.4
20260505202322 57 112 0.0 1.7 0.00 0.33 0.33 85 988.5
20260505202222 57 112 0.9 1.7 0.00 0.33 0.33 85 988.4
20260505202122 57 112 0.9 0.9 0.00 0.33 0.33 85 988.4
20260505202022 57 112 0.0 1.7 0.00 0.33 0.33 85 988.3
20260505201922 57 122 0.0 1.7 0.00 0.33 0.33 85 988.4
20260505201822 57 135 0.0 0.0 0.00 0.33 0.33 85 988.2
20260505201722 57 135 0.0 0.0 0.00 0.33 0.33 84 988.4
20260505201622 57 129 0.0 0.9 0.00 0.33 0.33 84 988.3
20260505201522 57 112 0.0 0.9 0.00 0.33 0.33 84 988.3
20260505201422 58 155 0.0 0.9 0.00 0.33 0.33 84 988.4
20260505201322 58 59 0.0 0.9 0.00 0.33 0.33 84 988.4
20260505201222 58 103 0.0 0.9 0.00 0.33 0.33 84 988.4
20260505201122 58 110 0.0 0.9 0.00 0.33 0.33 84 988.5
20260505201022 58 111 0.0 1.7 0.00 0.33 0.33 84 988.3
20260505200922 58 123 0.0 1.7 0.00 0.33 0.33 84 988.4
20260505200822 58 135 0.0 1.7 0.00 0.33 0.33 84 988.6
20260505200722 58 46 0.0 1.7 0.00 0.33 0.33 84 988.5
20260505200622 58 0 0.0 0.0 0.00 0.33 0.33 85 988.3
20260505200522 58 346 0.0 0.0 0.00 0.33 0.33 84 988.3
20260505200422 58 95 0.0 0.0 0.00 0.33 0.33 83 988.5
20260505200322 58 158 0.0 0.9 0.00 0.33 0.33 83 988.5
20260505200222 58 126 0.9 1.7 0.00 0.33 0.33 83 988.5
20260505200121 58 149 0.9 1.7 0.00 0.33 0.33 83 988.5
20260505200021 58 139 0.0 2.6 0.00 0.33 0.33 83 988.4
20260505195921 58 135 0.9 2.6 0.00 0.33 0.33 83 988.5
20260505195821 58 124 0.9 1.7 0.00 0.33 0.33 83 988.5
20260505195721 58 112 0.0 1.7 0.00 0.33 0.33 83 988.4
20260505195621 58 104 0.9 0.9 0.00 0.33 0.33 83 988.4
20260505195521 58 135 0.9 2.6 0.00 0.33 0.33 83 988.6
20260505195421 58 120 0.0 2.6 0.00 0.33 0.33 84 988.4
20260505195321 58 111 0.9 2.6 0.00 0.33 0.33 83 988.5
20260505195221 58 344 0.9 2.6 0.00 0.33 0.33 83 988.5
20260505195121 58 12 0.9 2.6 0.00 0.33 0.33 83 988.4
20260505195021 58 112 0.0 1.7 0.00 0.33 0.33 84 988.4
20260505194921 58 112 0.9 1.7 0.00 0.33 0.33 84 988.3
20260505194821 58 157 0.9 1.7 0.00 0.33 0.33 83 988.2
20260505194721 58 315 0.0 0.9 0.00 0.33 0.33 83 988.2
20260505194621 58 134 0.9 1.7 0.00 0.33 0.33 83 988.3
20260505194523 58 93 0.9 1.7 0.00 0.33 0.33 83 988.3
20260505194423 58 277 0.9 2.6 0.00 0.33 0.33 83 988.2
20260505194323 58 101 0.9 5.2 0.00 0.33 0.33 83 988.2
20260505194223 58 135 0.9 5.2 0.00 0.33 0.33 83 988.2
20260505194123 58 98 0.9 2.6 0.00 0.33 0.33 84 988.2
20260505194023 58 115 0.0 1.7 0.00 0.33 0.33 83 988.2
20260505193922 58 125 0.0 1.7 0.00 0.33 0.33 83 988.2
20260505193822 58 29 0.0 0.9 0.00 0.33 0.33 83 988.3
20260505193722 58 70 0.0 1.7 0.00 0.33 0.33 83 988.2
20260505193622 58 173 0.9 2.6 0.00 0.33 0.33 82 988.3
20260505193522 58 135 0.9 1.7 0.00 0.33 0.33 83 988.0
20260505193422 58 119 0.9 1.7 0.00 0.33 0.33 83 988.1
20260505193322 58 127 0.9 0.9 0.00 0.33 0.33 83 988.1
20260505193222 58 287 0.9 6.1 0.00 0.33 0.33 83 988.1
20260505193122 58 135 0.9 1.7 0.00 0.33 0.33 84 988.1
20260505193022 58 119 0.9 1.7 0.00 0.33 0.33 84 988.2
20260505192922 58 112 0.0 1.7 0.00 0.33 0.33 84 988.3
20260505192822 58 113 0.9 1.7 0.00 0.33 0.33 84 988.3
20260505192722 58 99 0.9 1.7 0.00 0.33 0.33 83 988.2
20260505192622 58 96 0.0 0.9 0.00 0.33 0.33 83 988.1
20260505192522 58 106 0.9 2.6 0.00 0.33 0.33 83 988.2
20260505192422 58 117 0.9 2.6 0.00 0.33 0.33 83 988.2
20260505192322 58 135 0.9 2.6 0.00 0.33 0.33 83 988.2
20260505192222 58 135 0.9 2.6 0.00 0.33 0.33 83 988.2
20260505192122 58 120 0.9 2.6 0.00 0.33 0.33 83 988.1
20260505192022 58 121 0.9 4.3 0.00 0.33 0.33 83 988.1
20260505191922 58 103 0.9 4.3 0.00 0.33 0.33 84 988.1
20260505191822 58 135 0.9 1.7 0.00 0.33 0.33 84 988.2
20260505191722 58 116 0.9 1.7 0.00 0.33 0.33 83 988.1
20260505191621 58 115 0.9 1.7 0.00 0.33 0.33 83 988.1
20260505191521 58 135 0.9 1.7 0.00 0.33 0.33 83 988.1
20260505191421 57 135 0.9 1.7 0.00 0.33 0.33 83 988.0
20260505191321 57 136 0.9 0.9 0.00 0.33 0.33 84 988.2
20260505191221 57 102 0.9 2.6 0.00 0.33 0.33 84 988.2
20260505191121 57 84 0.9 2.6 0.00 0.33 0.33 85 988.2
20260505191021 57 112 0.0 0.9 0.00 0.33 0.33 85 988.3
20260505190921 57 114 0.0 1.7 0.00 0.33 0.33 84 988.3
20260505190821 57 127 0.0 1.7 0.00 0.33 0.33 85 988.2
20260505190721 57 112 0.0 0.0 0.00 0.33 0.33 84 988.2
20260505190621 57 112 0.9 4.3 0.00 0.33 0.33 84 988.2
20260505190521 57 139 0.9 4.3 0.00 0.33 0.33 84 988.2
20260505190421 57 254 0.0 0.9 0.00 0.33 0.33 85 988.2
20260505190321 57 261 0.0 1.7 0.00 0.33 0.33 85 988.3
20260505190221 57 121 0.0 1.7 0.00 0.33 0.33 85 988.1
20260505190123 57 112 0.0 0.9 0.00 0.33 0.33 85 988.2
20260505190023 57 112 0.0 0.9 0.00 0.33 0.33 85 988.3
20260505185923 57 112 0.0 1.7 0.00 0.33 0.33 84 988.1
20260505185823 57 122 0.9 1.7 0.00 0.33 0.33 84 988.0
20260505185723 57 123 0.0 1.7 0.00 0.33 0.33 85 988.2
20260505185623 57 127 0.9 1.7 0.00 0.33 0.33 85 988.1
20260505185522 57 112 0.9 1.7 0.00 0.33 0.33 85 988.2
20260505185422 57 142 0.0 1.7 0.00 0.33 0.33 85 988.1
20260505185322 57 139 0.9 1.7 0.00 0.33 0.33 85 988.0
20260505185222 57 113 0.9 1.7 0.00 0.33 0.33 85 988.0
20260505185122 57 103 0.0 1.7 0.00 0.33 0.33 84 988.1
20260505185022 57 90 0.0 0.0 0.00 0.33 0.33 85 988.1
20260505184922 57 90 0.0 0.9 0.00 0.33 0.33 84 988.1
20260505184822 57 90 0.0 0.9 0.00 0.33 0.33 85 988.0
20260505184722 57 90 0.0 0.9 0.00 0.33 0.33 85 988.1
20260505184622 57 102 0.0 0.9 0.00 0.33 0.33 85 988.0
20260505184522 57 112 0.0 1.7 0.00 0.33 0.33 84 988.0
20260505184422 57 112 0.9 2.6 0.00 0.33 0.33 84 988.2
20260505184322 57 127 0.9 2.6 0.00 0.33 0.33 84 988.1
20260505184222 57 142 0.9 1.7 0.00 0.33 0.33 85 988.0
20260505184122 58 117 0.0 1.7 0.00 0.33 0.33 84 988.0
20260505184022 58 135 0.9 1.7 0.00 0.33 0.33 84 988.1
20260505183922 58 135 1.7 1.7 0.00 0.33 0.33 84 987.9
20260505183822 58 135 0.9 1.7 0.00 0.33 0.33 85 988.1
20260505183722 58 135 0.9 1.7 0.00 0.33 0.33 84 988.1
20260505183622 58 135 0.9 2.6 0.00 0.33 0.33 85 988.0
20260505183522 58 135 0.9 2.6 0.00 0.33 0.33 85 988.0
20260505183422 58 100 0.9 1.7 0.00 0.33 0.33 85 988.1
20260505183322 58 131 0.9 1.7 0.00 0.33 0.33 85 988.2
20260505183222 58 156 0.9 2.6 0.00 0.33 0.33 85 988.0
20260505183121 58 135 0.9 2.6 0.00 0.33 0.33 85 988.1
20260505183021 58 117 0.9 2.6 0.00 0.33 0.33 85 988.1
20260505182921 58 118 0.9 2.6 0.00 0.33 0.33 86 988.1
20260505182821 58 135 0.0 0.9 0.00 0.33 0.33 85 988.0
20260505182721 58 120 0.9 0.9 0.00 0.33 0.33 86 988.1
20260505182621 58 133 0.9 1.7 0.00 0.33 0.33 85 988.0
20260505182521 58 120 0.9 1.7 0.00 0.33 0.33 86 988.0
20260505182421 58 132 0.9 1.7 0.00 0.33 0.33 86 988.1
20260505182321 58 105 0.9 1.7 0.00 0.33 0.33 86 988.1
20260505182221 58 90 0.9 1.7 0.00 0.33 0.33 86 988.1
20260505182121 58 150 0.9 1.7 0.00 0.33 0.33 86 988.1
20260505182021 58 147 0.9 1.7 0.01 0.33 0.33 87 988.0
20260505181921 58 150 0.9 0.9 0.01 0.33 0.33 87 987.9
20260505181821 58 134 0.9 0.9 0.01 0.33 0.33 87 988.0
20260505181721 58 114 0.0 0.9 0.01 0.33 0.33 87 988.2
20260505181621 58 112 0.0 0.0 0.01 0.33 0.33 87 988.0
20260505181523 58 112 0.0 0.0 0.01 0.33 0.33 88 988.2
20260505181423 58 113 0.0 0.9 0.01 0.33 0.33 88 988.1
20260505181323 58 133 0.0 0.9 0.01 0.33 0.33 88 988.1
20260505181223 58 135 0.0 1.7 0.02 0.33 0.33 88 988.1
20260505181123 58 111 0.0 1.7 0.02 0.33 0.33 88 988.0
20260505181023 58 90 0.0 0.9 0.04 0.33 0.33 89 988.1
20260505180922 58 90 0.0 0.9 0.04 0.33 0.33 90 988.1
20260505180822 58 90 0.0 0.0 0.04 0.33 0.33 89 988.1
20260505180722 58 90 0.0 0.9 0.04 0.33 0.33 89 988.1
20260505180622 58 91 0.9 1.7 0.05 0.33 0.33 89 988.1
20260505180522 58 197 0.0 1.7 0.05 0.33 0.33 90 988.1
20260505180422 58 188 0.0 0.9 0.05 0.33 0.33 90 988.0
20260505180322 58 90 0.0 0.0 0.05 0.33 0.33 90 988.0
20260505180222 58 90 0.0 0.0 0.05 0.33 0.33 90 988.0
20260505180122 58 90 0.0 0.0 0.06 0.33 0.33 90 988.0
20260505180022 58 90 0.0 0.9 0.08 0.33 0.33 90 988.1
20260505175922 58 100 0.0 0.9 0.08 0.33 0.33 90 988.1
20260505175822 58 112 0.0 0.9 0.13 0.33 0.33 89 988.0
20260505175722 58 112 0.0 1.7 0.14 0.33 0.33 90 988.1
20260505175622 58 131 0.9 1.7 0.17 0.33 0.33 89 987.9
20260505175522 58 135 0.9 2.6 0.18 0.33 0.33 90 987.9
20260505175422 58 135 0.0 2.6 0.20 0.33 0.33 90 988.1
20260505175322 58 120 0.0 0.9 0.20 0.33 0.33 90 988.0
20260505175222 58 118 0.0 0.9 0.21 0.33 0.33 90 988.2
20260505175122 58 135 0.0 0.0 0.22 0.33 0.33 90 988.0
20260505175022 58 135 0.0 0.0 0.24 0.33 0.33 91 988.1
20260505174922 58 135 0.0 0.0 0.24 0.33 0.33 91 988.2
20260505174822 58 135 0.0 0.0 0.24 0.33 0.33 91 988.1
20260505174722 58 135 0.0 0.0 0.25 0.33 0.33 91 988.1
20260505174622 58 135 0.0 0.0 0.25 0.33 0.33 91 988.1
20260505174522 57 135 0.0 0.0 0.25 0.33 0.33 90 988.1
20260505174422 57 135 0.0 0.0 0.25 0.33 0.33 90 988.1
20260505174322 57 135 0.0 0.0 0.25 0.33 0.33 90 988.1
20260505174221 57 135 0.0 0.9 0.26 0.33 0.33 90 988.0
20260505174121 57 136 0.0 0.9 0.26 0.33 0.33 90 988.1
20260505174021 57 245 0.0 0.9 0.26 0.33 0.33 90 988.3
20260505173921 57 239 0.0 0.0 0.27 0.33 0.33 90 988.1
20260505173821 58 280 0.0 0.0 0.27 0.33 0.33 90 988.1
20260505173721 58 292 0.0 0.0 0.27 0.33 0.33 90 988.2
20260505173621 58 292 0.0 0.0 0.27 0.33 0.33 91 988.2
20260505173521 58 292 0.0 0.0 0.27 0.33 0.33 91 988.2
20260505173421 58 242 0.0 0.0 0.27 0.33 0.33 91 988.1
20260505173321 58 184 0.0 0.0 0.27 0.33 0.33 90 988.2
20260505173221 58 247 0.0 0.0 0.27 0.33 0.33 90 988.1
20260505173121 58 248 0.0 0.0 0.27 0.33 0.33 90 988.1
20260505173021 58 259 0.0 0.0 0.28 0.33 0.33 91 988.0
20260505172921 58 270 0.0 0.0 0.28 0.33 0.33 90 988.0
20260505172823 58 270 0.0 0.0 0.28 0.33 0.33 90 988.0
20260505172723 58 270 0.0 0.0 0.30 0.33 0.33 90 988.1
20260505172623 58 270 0.0 0.0 0.30 0.33 0.33 90 988.0
20260505172523 58 270 0.0 0.0 0.30 0.33 0.33 90 988.1
20260505172423 58 270 0.0 0.0 0.30 0.33 0.33 90 988.0
20260505172323 58 270 0.0 0.0 0.30 0.33 0.33 90 988.1
20260505172223 58 270 0.0 0.0 0.30 0.33 0.33 90 988.1
20260505172123 58 273 0.0 0.0 0.30 0.33 0.33 90 987.9
20260505172022 58 292 0.0 0.0 0.30 0.32 0.32 90 987.8
20260505171922 58 285 0.0 0.0 0.30 0.32 0.32 90 987.9
20260505171822 58 270 0.0 0.0 0.30 0.32 0.32 89 987.9
20260505171722 58 268 0.0 0.9 0.30 0.32 0.32 89 988.0
20260505171622 58 256 0.9 1.7 0.30 0.32 0.32 89 987.9
20260505171522 58 263 0.9 2.6 0.30 0.32 0.32 89 988.0
20260505171422 58 279 0.0 2.6 0.30 0.32 0.32 89 988.0
20260505171322 58 299 0.0 0.9 0.30 0.32 0.32 88 988.0
20260505171222 58 335 0.0 0.9 0.28 0.31 0.31 88 988.0
20260505171122 58 293 0.0 0.9 0.28 0.31 0.31 88 987.9
20260505171022 58 292 0.9 0.9 0.27 0.30 0.30 88 987.9
20260505170922 58 265 0.9 4.3 0.27 0.30 0.30 87 988.0
20260505170822 58 249 1.7 4.3 0.27 0.30 0.30 86 987.9
20260505170722 58 269 0.9 4.3 0.27 0.30 0.30 86 987.9
20260505170622 58 286 1.7 7.0 0.26 0.28 0.28 86 987.9
20260505170522 58 280 0.9 7.0 0.26 0.28 0.28 87 988.0
20260505170422 58 268 0.9 2.6 0.26 0.28 0.28 86 987.9
20260505170322 58 248 0.9 2.6 0.26 0.28 0.28 88 987.9
20260505170222 59 217 0.9 2.6 0.26 0.28 0.28 88 987.9
20260505170122 59 286 0.9 1.7 0.25 0.27 0.27 87 987.9
20260505170022 59 270 1.7 1.7 0.22 0.25 0.25 88 988.0
20260505165922 59 270 0.9 1.7 0.22 0.25 0.25 89 988.0
20260505165821 60 39 0.0 0.9 0.18 0.20 0.20 90 987.8
20260505165721 60 275 0.0 0.0 0.17 0.19 0.19 90 987.8
20260505165621 60 270 0.0 0.9 0.14 0.17 0.17 89 987.8
20260505165521 60 270 0.0 0.9 0.13 0.15 0.15 89 987.8
20260505165421 60 270 0.9 0.9 0.11 0.13 0.13 89 987.6
20260505165321 60 114 0.0 0.9 0.11 0.13 0.13 89 987.7
20260505165221 60 112 0.0 0.0 0.09 0.12 0.12 88 987.5
20260505165121 60 112 0.0 0.0 0.08 0.11 0.11 88 987.5
20260505165021 60 127 0.0 0.0 0.07 0.09 0.09 88 987.6
20260505164921 60 135 0.0 0.0 0.07 0.09 0.09 87 987.7
20260505164821 60 135 0.0 0.0 0.07 0.09 0.09 87 987.6
20260505164721 60 135 0.0 0.0 0.06 0.08 0.08 87 987.6
20260505164621 60 135 0.0 1.7 0.06 0.08 0.08 87 987.4
20260505164521 60 154 0.9 1.7 0.06 0.08 0.08 86 987.5
20260505164421 60 154 0.9 1.7 0.06 0.08 0.08 86 987.6
20260505164321 60 135 0.9 1.7 0.06 0.08 0.08 87 987.6
20260505164221 60 82 0.0 1.7 0.05 0.07 0.07 87 987.6
20260505164123 60 68 0.0 0.0 0.05 0.07 0.07 87 987.6
20260505164023 60 64 0.0 0.0 0.05 0.07 0.07 86 987.5
20260505163923 60 9 0.0 0.0 0.04 0.06 0.06 86 987.6
20260505163823 60 314 0.0 0.0 0.04 0.06 0.06 84 987.6
20260505163723 60 294 0.0 0.0 0.04 0.06 0.06 84 987.7
20260505163623 60 292 0.0 0.0 0.04 0.06 0.06 83 987.6
20260505163522 60 292 0.0 0.0 0.04 0.06 0.06 83 987.5
20260505163422 60 292 0.0 0.0 0.04 0.06 0.06 84 987.4
20260505163322 61 292 0.0 0.0 0.04 0.06 0.06 83 987.5
20260505163222 61 312 0.0 0.0 0.04 0.06 0.06 83 987.5
20260505163122 61 305 0.0 0.0 0.04 0.06 0.06 83 987.5
20260505163022 61 112 0.0 0.0 0.02 0.05 0.05 83 987.5
20260505162922 61 112 0.0 0.9 0.02 0.05 0.05 83 987.4
20260505162822 61 132 0.0 0.9 0.02 0.05 0.05 82 987.4
20260505162722 61 135 0.0 0.9 0.01 0.04 0.04 82 987.5
20260505162622 61 135 0.0 0.9 0.01 0.04 0.04 81 987.6
20260505162522 62 116 0.0 0.9 0.01 0.04 0.04 81 987.6
20260505162422 61 52 0.0 0.9 0.01 0.04 0.04 79 987.6
20260505162322 61 45 0.0 0.9 0.01 0.04 0.04 79 987.6
20260505162222 61 28 0.0 0.9 0.01 0.04 0.04 80 987.6
20260505162122 61 22 0.0 0.9 0.01 0.04 0.04 79 987.5
20260505162022 62 3 0.0 0.9 0.00 0.02 0.02 78 987.6
20260505161922 62 0 0.0 0.0 0.00 0.02 0.02 79 987.5
20260505161822 62 0 0.0 0.9 0.00 0.02 0.02 79 987.6
20260505161722 62 359 0.0 0.9 0.00 0.02 0.02 78 987.5
20260505161622 62 318 0.9 0.9 0.00 0.02 0.02 77 987.7
20260505161521 62 299 0.9 0.9 0.00 0.02 0.02 76 987.8
20260505161421 62 298 0.9 0.9 0.00 0.02 0.02 76 987.8
20260505161321 62 297 0.9 0.9 0.00 0.02 0.02 76 987.7
20260505161221 62 312 0.9 0.9 0.00 0.02 0.02 76 987.7
20260505161121 63 300 0.0 0.9 0.00 0.02 0.02 75 987.6
20260505161021 63 292 0.0 0.9 0.00 0.02 0.02 75 987.7
20260505160921 63 276 0.9 1.7 0.00 0.02 0.02 74 987.7
20260505160821 63 283 0.9 1.7 0.00 0.02 0.02 75 987.7
20260505160721 63 270 0.9 0.9 0.00 0.02 0.02 74 987.8
20260505160621 63 270 0.9 0.9 0.00 0.02 0.02 74 987.8
20260505160521 63 270 0.9 1.7 0.00 0.02 0.02 73 987.7
20260505160421 63 274 0.9 1.7 0.00 0.02 0.02 74 987.7
20260505160321 63 292 0.9 1.7 0.00 0.02 0.02 75 987.7
20260505160221 63 286 0.9 1.7 0.00 0.02 0.02 74 987.6
20260505160121 63 286 0.9 1.7 0.00 0.02 0.02 75 987.6
20260505153321 64 312 0.9 1.7 0.00 0.02 0.02 74 987.6
20260505153221 64 322 1.7 4.3 0.00 0.02 0.02 73 987.6
20260505153121 64 29 1.7 4.3 0.00 0.02 0.02 73 987.7
20260505153021 64 33 1.7 4.3 0.00 0.02 0.02 71 987.7
20260505152921 65 17 1.7 4.3 0.00 0.02 0.02 71 987.6
20260505152821 65 326 0.9 2.6 0.00 0.02 0.02 72 987.8
20260505152721 65 254 0.9 2.6 0.00 0.02 0.02 70 987.6
20260505152621 65 354 1.7 4.3 0.00 0.02 0.02 69 987.7
20260505152521 65 0 2.6 4.3 0.00 0.02 0.02 70 987.6
20260505152421 65 325 2.6 4.3 0.00 0.02 0.02 71 987.5
20260505152321 65 322 1.7 4.3 0.00 0.02 0.02 71 987.6
20260505152223 65 319 0.9 4.3 0.00 0.02 0.02 70 987.6
20260505152123 65 357 0.9 2.6 0.00 0.02 0.02 71 987.6
20260505152023 65 7 1.7 5.2 0.00 0.02 0.02 71 987.7
20260505151923 64 292 1.7 5.2 0.00 0.02 0.02 73 987.6
20260505151823 64 21 1.7 4.3 0.00 0.02 0.02 73 987.6
20260505151722 64 3 2.6 4.3 0.00 0.02 0.02 72 987.6
20260505151622 64 342 2.6 6.1 0.00 0.02 0.02 73 987.6
20260505151522 64 344 2.6 5.2 0.00 0.02 0.02 72 987.7
20260505151422 64 359 1.7 5.2 0.00 0.02 0.02 72 987.6
20260505151322 64 318 1.7 5.2 0.00 0.02 0.02 72 987.6
20260505151222 64 253 0.9 5.2 0.00 0.02 0.02 72 987.6
20260505151122 64 352 0.9 2.6 0.00 0.02 0.02 72 987.6
20260505151022 64 295 1.7 5.2 0.00 0.02 0.02 73 987.5
20260505150922 64 19 2.6 5.2 0.00 0.02 0.02 73 987.5
20260505150822 64 41 2.6 5.2 0.00 0.02 0.02 74 987.6
20260505150722 64 17 2.6 5.2 0.00 0.02 0.02 74 987.6
20260505150622 64 322 2.6 4.3 0.00 0.02 0.02 74 987.5
20260505150522 64 273 2.6 5.2 0.00 0.02 0.02 73 987.5
20260505150422 64 305 2.6 5.2 0.00 0.02 0.02 75 987.6
20260505150322 64 326 2.6 5.2 0.00 0.02 0.02 75 987.5
20260505150222 65 12 5.2 8.7 0.00 0.02 0.02 73 987.4
20260505150122 65 0 4.3 8.7 0.00 0.02 0.02 73 987.4
20260505140622 63 4 0.9 2.6 0.00 0.02 0.02 73 988.0
20260505140521 63 22 0.9 2.6 0.00 0.02 0.02 73 988.0
20260505140421 63 16 1.7 2.6 0.00 0.02 0.02 73 988.0
20260505140321 63 287 1.7 2.6 0.00 0.02 0.02 73 988.0
20260505140221 63 304 1.7 4.3 0.00 0.02 0.02 72 988.1
20260505140121 63 303 1.7 4.3 0.00 0.02 0.02 74 988.1
20260505130222 61 292 0.9 2.6 0.00 0.02 0.02 79 988.4
20260505130122 61 291 0.9 2.6 0.00 0.02 0.02 78 988.4
20260505125022 61 338 0.0 0.0 0.00 0.02 0.02 80 988.6
20260505124922 61 337 0.0 0.0 0.00 0.02 0.02 80 988.7
20260505124822 61 316 0.0 0.0 0.00 0.02 0.02 80 988.5
20260505124722 61 315 0.0 0.9 0.00 0.02 0.02 80 988.5
20260505124621 60 305 0.0 0.9 0.01 0.02 0.02 80 988.5
20260505124521 60 290 0.0 0.9 0.01 0.02 0.02 78 988.5
20260505124421 60 278 0.9 0.9 0.01 0.02 0.02 79 988.7
20260505124321 60 299 0.0 0.9 0.01 0.02 0.02 77 988.6
20260505124221 60 342 0.9 1.7 0.01 0.02 0.02 77 988.6
20260505124121 60 22 0.9 1.7 0.01 0.02 0.02 78 988.6
20260505124021 60 1 0.0 1.7 0.01 0.02 0.02 79 988.6
20260505123921 60 309 0.0 0.0 0.01 0.02 0.02 80 988.6
20260505123821 60 292 0.0 0.9 0.01 0.02 0.02 79 988.6
20260505123721 60 294 0.0 1.7 0.01 0.02 0.02 77 988.6
20260505123621 60 330 0.9 1.7 0.01 0.02 0.02 78 988.6
20260505123521 60 0 0.9 0.9 0.01 0.02 0.02 77 988.7
20260505123421 60 349 0.9 1.7 0.01 0.02 0.02 78 988.8
20260505123321 60 9 0.9 1.7 0.01 0.02 0.02 78 988.7
20260505123221 60 354 0.9 1.7 0.01 0.02 0.02 78 988.6
20260505123121 60 298 0.9 1.7 0.01 0.02 0.02 80 988.7
20260505123023 60 284 0.9 1.7 0.01 0.02 0.02 80 988.6
20260505122923 60 271 0.9 1.7 0.01 0.02 0.02 79 988.6
20260505122823 60 291 0.9 1.7 0.01 0.02 0.02 81 988.6
20260505122723 60 289 0.9 1.7 0.01 0.02 0.02 80 988.7
20260505122623 60 270 0.9 1.7 0.01 0.02 0.02 80 988.6
20260505122523 60 282 0.9 0.9 0.01 0.02 0.02 80 988.5
20260505122423 60 292 0.9 1.7 0.01 0.02 0.02 79 988.7
20260505122323 60 286 0.9 1.7 0.01 0.02 0.02 79 988.7
20260505122223 61 284 0.9 0.9 0.01 0.02 0.02 78 988.6
20260505122122 61 311 0.9 0.9 0.01 0.02 0.02 78 988.7
20260505122022 60 300 0.0 0.9 0.01 0.02 0.02 79 988.6
20260505121922 60 309 0.0 0.0 0.01 0.02 0.02 78 988.8
20260505121822 60 281 0.0 0.0 0.01 0.02 0.02 78 988.6
20260505121722 60 284 0.0 0.9 0.01 0.02 0.02 77 988.7
20260505121622 60 292 0.9 0.9 0.01 0.02 0.02 78 988.7
20260505121522 60 279 0.9 1.7 0.01 0.02 0.02 77 988.6
20260505121422 61 264 0.9 1.7 0.01 0.02 0.02 78 988.8
20260505121322 61 271 0.9 1.7 0.01 0.02 0.02 79 988.7
20260505121222 61 299 0.9 0.9 0.01 0.02 0.02 81 988.7
20260505121122 60 305 0.0 0.9 0.01 0.02 0.02 81 988.6
20260505121022 60 292 0.0 0.9 0.01 0.02 0.02 80 988.7
20260505120922 60 292 0.0 0.9 0.01 0.02 0.02 78 988.7
20260505120822 60 292 0.9 2.6 0.01 0.02 0.02 78 988.7
20260505120722 60 289 0.9 2.6 0.01 0.02 0.02 78 988.8
20260505120622 60 338 0.9 1.7 0.01 0.02 0.02 80 988.7
20260505120522 60 320 0.9 1.7 0.01 0.02 0.02 79 988.7
20260505120421 61 288 0.9 1.7 0.01 0.02 0.02 78 988.7
20260505120321 61 281 0.9 1.7 0.01 0.02 0.02 78 988.8
20260505120221 61 304 0.9 1.7 0.01 0.02 0.02 78 988.8
20260505120121 61 300 0.9 1.7 0.01 0.02 0.02 77 988.7
20260505120021 61 283 0.9 1.7 0.01 0.02 0.02 79 988.7
20260505115921 61 285 0.9 1.7 0.01 0.02 0.02 79 988.6
20260505115821 61 270 0.9 1.7 0.01 0.02 0.02 79 988.7
20260505115721 61 272 0.9 1.7 0.01 0.02 0.02 79 988.8
20260505115621 61 279 0.9 1.7 0.01 0.02 0.02 79 988.7
20260505115521 61 270 0.9 1.7 0.01 0.02 0.02 78 988.8
20260505115421 61 301 0.0 1.7 0.01 0.02 0.02 79 988.8
20260505115321 61 279 0.0 0.9 0.01 0.02 0.02 79 988.7
20260505115221 61 270 0.0 0.9 0.01 0.02 0.02 79 988.7
20260505115121 61 278 0.9 0.9 0.01 0.02 0.02 79 988.7
20260505115021 61 292 0.9 0.9 0.01 0.02 0.02 77 988.9
20260505114921 61 276 0.0 0.9 0.01 0.02 0.02 77 988.8
20260505114823 61 292 0.9 0.9 0.01 0.02 0.02 79 988.8
20260505114723 61 292 0.0 0.9 0.01 0.02 0.02 76 988.8
20260505114623 61 292 0.0 0.9 0.00 0.01 0.01 76 988.7
20260505114523 61 292 0.9 0.9 0.00 0.01 0.01 77 988.6
20260505114423 61 292 0.9 0.9 0.00 0.01 0.01 77 988.8
20260505114323 61 284 0.9 0.9 0.00 0.01 0.01 76 988.7
20260505114223 61 298 0.9 1.7 0.00 0.01 0.01 76 988.7
20260505114122 61 315 0.9 1.7 0.00 0.01 0.01 76 988.9
20260505114022 61 315 0.9 0.9 0.00 0.01 0.01 78 988.8
20260505113922 61 315 0.9 0.9 0.00 0.01 0.01 78 988.8
20260505113822 61 300 0.9 0.9 0.00 0.01 0.01 77 988.8
20260505113722 61 273 0.9 0.9 0.00 0.01 0.01 77 989.0
20260505113622 61 270 0.9 0.9 0.00 0.01 0.01 76 988.8
20260505113522 61 275 0.9 0.9 0.00 0.01 0.01 76 988.7
20260505113422 61 292 0.9 0.9 0.00 0.01 0.01 75 988.8
20260505113322 61 292 0.0 0.9 0.00 0.01 0.01 76 988.7
20260505113222 61 292 0.9 1.7 0.00 0.01 0.01 74 988.8
20260505113122 61 292 0.9 1.7 0.00 0.01 0.01 75 988.8
20260505113022 61 292 0.9 1.7 0.00 0.01 0.01 77 988.8
20260505112922 61 292 0.9 1.7 0.00 0.01 0.01 76 988.8
20260505112822 61 278 0.9 1.7 0.00 0.01 0.01 76 988.9
20260505112722 61 302 0.9 1.7 0.00 0.01 0.01 75 988.7
20260505112622 61 286 0.9 1.7 0.00 0.01 0.01 75 988.9
20260505112522 61 312 0.9 1.7 0.00 0.01 0.01 73 988.9
20260505112422 61 297 0.0 1.7 0.00 0.01 0.01 75 988.8
20260505112322 61 292 0.9 1.7 0.00 0.01 0.01 75 988.7
20260505112222 61 279 0.0 1.7 0.00 0.01 0.01 74 988.7
20260505112122 61 270 0.0 0.9 0.00 0.01 0.01 74 988.8
20260505112021 61 307 0.9 1.7 0.00 0.01 0.01 74 988.8
20260505111921 61 282 0.9 1.7 0.00 0.01 0.01 73 988.8
20260505111821 61 270 0.9 1.7 0.00 0.01 0.01 73 988.9
20260505111721 61 282 0.0 1.7 0.00 0.01 0.01 73 989.0
20260505111621 61 292 0.9 2.6 0.00 0.01 0.01 75 988.9
20260505111521 61 292 0.9 2.6 0.00 0.01 0.01 75 988.9
20260505111421 61 311 0.9 2.6 0.00 0.01 0.01 74 989.0
20260505111321 61 305 0.9 1.7 0.00 0.01 0.01 74 988.9
20260505111221 62 306 0.9 2.6 0.00 0.01 0.01 74 989.0
20260505111121 62 283 1.7 2.6 0.00 0.01 0.01 73 989.1
20260505111021 62 255 0.9 2.6 0.00 0.01 0.01 73 989.0
20260505110921 62 261 0.9 2.6 0.00 0.01 0.01 74 989.1
20260505110821 62 291 1.7 2.6 0.00 0.01 0.01 74 989.1
20260505110721 62 281 0.9 1.7 0.00 0.01 0.01 74 989.0
20260505110621 62 270 0.9 1.7 0.00 0.01 0.01 72 988.9
20260505110521 62 270 0.9 1.7 0.00 0.01 0.01 71 988.9
20260505110421 62 270 0.0 1.7 0.00 0.01 0.01 73 989.0
20260505110321 62 270 0.0 1.7 0.00 0.01 0.01 72 989.0
20260505110223 62 270 0.9 1.7 0.00 0.01 0.01 72 989.0
20260505110123 62 271 0.9 1.7 0.00 0.01 0.01 73 989.1
20260505102221 63 270 1.7 2.6 0.00 0.01 0.01 71 989.1
20260505102121 63 270 2.6 2.6 0.00 0.01 0.01 72 989.1
20260505102021 63 270 1.7 2.6 0.00 0.01 0.01 74 989.1
20260505101921 62 290 0.9 2.6 0.00 0.01 0.01 72 989.1
20260505101823 62 338 0.9 1.7 0.00 0.01 0.01 71 989.2
20260505101723 62 319 0.9 1.7 0.00 0.01 0.01 72 989.1
20260505101623 62 300 0.9 1.7 0.00 0.01 0.01 71 989.1
20260505101523 63 0 1.7 2.6 0.00 0.01 0.01 70 989.1
20260505101422 63 12 1.7 2.6 0.00 0.01 0.01 71 989.1
20260505101322 63 329 0.0 2.6 0.00 0.01 0.01 70 989.2
20260505101222 62 248 0.0 0.0 0.00 0.01 0.01 71 989.3
20260505101122 62 263 0.0 0.0 0.00 0.01 0.01 71 989.2
20260505101022 62 307 0.9 1.7 0.00 0.01 0.01 72 989.2
20260505100922 62 298 1.7 4.3 0.00 0.01 0.01 72 989.3
20260505100822 62 309 1.7 4.3 0.00 0.01 0.01 72 989.2
20260505100722 63 270 2.6 4.3 0.00 0.01 0.01 72 989.3
20260505100622 63 270 1.7 4.3 0.00 0.01 0.01 73 989.4
20260505100522 63 322 0.9 4.3 0.00 0.01 0.01 71 989.3
20260505100422 64 312 1.7 4.3 0.00 0.01 0.01 70 989.3
20260505100322 64 260 0.0 4.3 0.00 0.01 0.01 71 989.3
20260505100222 64 310 0.9 1.7 0.00 0.01 0.01 71 989.3
20260505100122 64 298 0.9 1.7 0.00 0.01 0.01 70 989.4
20260505100022 64 292 0.0 0.9 0.00 0.01 0.01 70 989.2
20260505095922 64 118 0.0 1.7 0.00 0.01 0.01 70 989.4
20260505095822 64 120 0.9 1.7 0.00 0.01 0.01 68 989.2
20260505095722 64 175 0.0 0.9 0.00 0.01 0.01 71 989.4
20260505095622 64 275 0.0 0.9 0.00 0.01 0.01 73 989.5
20260505095522 64 292 0.9 0.9 0.00 0.01 0.01 72 989.4
20260505095422 63 126 0.9 1.7 0.00 0.01 0.01 70 989.4
20260505095322 63 95 0.9 1.7 0.00 0.01 0.01 70 989.4
20260505095221 63 40 0.0 0.9 0.00 0.01 0.01 73 989.5
20260505095121 62 12 0.0 0.9 0.00 0.01 0.01 74 989.5
20260505095021 62 312 0.0 4.3 0.00 0.01 0.01 77 989.5
20260505094921 61 294 0.9 4.3 0.00 0.01 0.01 77 989.6
20260505094821 61 273 1.7 4.3 0.00 0.01 0.01 76 989.6
20260505094721 61 270 1.7 4.3 0.00 0.01 0.01 77 989.7
20260505094621 62 284 0.9 2.6 0.00 0.01 0.01 77 989.6
20260505094521 62 271 1.7 2.6 0.00 0.01 0.01 75 989.6
20260505094421 63 285 2.6 4.3 0.00 0.01 0.01 75 989.7
20260505094321 63 270 1.7 4.3 0.00 0.01 0.01 74 989.7
20260505094221 63 2 0.0 2.6 0.00 0.01 0.01 73 989.7
20260505094121 63 59 0.0 0.0 0.00 0.01 0.01 74 989.7
20260505094021 62 68 0.0 0.0 0.00 0.01 0.01 78 989.6
20260505093921 62 116 0.0 0.9 0.00 0.01 0.01 78 989.7
20260505093821 62 265 0.0 0.9 0.00 0.01 0.01 78 989.7
20260505093721 62 261 0.9 1.7 0.00 0.01 0.01 78 989.6
20260505093621 62 268 1.7 2.6 0.00 0.01 0.01 77 989.7
20260505093523 62 294 0.9 2.6 0.00 0.01 0.01 77 989.6
20260505093423 61 67 0.0 0.9 0.00 0.01 0.01 77 989.7
20260505093323 61 270 0.0 0.9 0.00 0.01 0.01 76 989.8
20260505093223 61 270 0.9 1.7 0.00 0.01 0.01 75 989.9
20260505093123 62 284 1.7 4.3 0.00 0.01 0.01 76 989.8
20260505093023 62 263 1.7 4.3 0.00 0.01 0.01 76 989.7
20260505092922 63 282 0.9 2.6 0.00 0.01 0.01 76 989.7
20260505092822 63 311 0.0 0.9 0.00 0.01 0.01 76 989.7
20260505092722 63 281 0.9 1.7 0.00 0.01 0.01 76 989.8
20260505092622 63 282 0.0 1.7 0.00 0.01 0.01 75 989.8
20260505092522 62 278 0.0 1.7 0.00 0.01 0.01 76 989.7
20260505092422 61 301 0.0 0.9 0.00 0.01 0.01 78 989.7
20260505092322 61 1 0.0 0.9 0.00 0.01 0.01 79 989.8
20260505092222 61 292 0.0 0.9 0.00 0.01 0.01 79 989.7
20260505092122 61 273 0.9 4.3 0.00 0.01 0.01 79 989.6
20260505092022 61 278 1.7 5.2 0.00 0.01 0.01 78 989.7
20260505091922 61 278 1.7 5.2 0.00 0.01 0.01 78 989.7
20260505091822 61 270 1.7 5.2 0.00 0.01 0.01 78 989.8
20260505091722 61 270 1.7 5.2 0.00 0.01 0.01 79 989.7
20260505091622 61 287 1.7 5.2 0.00 0.01 0.01 81 989.9
20260505091522 61 304 1.7 2.6 0.00 0.01 0.01 79 989.8
20260505091422 61 282 0.9 2.6 0.00 0.01 0.01 80 989.8
20260505091322 61 305 1.7 5.2 0.00 0.01 0.01 80 989.9
20260505091222 61 280 0.9 5.2 0.00 0.01 0.01 81 989.8
20260505091122 61 281 0.9 2.6 0.01 0.01 0.01 79 989.9
20260505091022 61 282 0.9 1.7 0.01 0.01 0.01 79 989.9
20260505090922 61 292 0.0 1.7 0.01 0.01 0.01 79 989.8
20260505090821 60 284 0.0 0.9 0.01 0.01 0.01 80 989.8
20260505090722 60 270 0.0 0.9 0.01 0.01 0.01 81 989.7
20260505090621 61 287 0.9 2.6 0.01 0.01 0.01 79 989.6
20260505090521 61 276 1.7 2.6 0.01 0.01 0.01 79 989.8
20260505090421 61 282 0.9 2.6 0.01 0.01 0.01 80 989.7
20260505090321 61 289 0.9 1.7 0.01 0.01 0.01 78 989.6
20260505090222 61 350 0.0 1.7 0.01 0.01 0.01 80 989.6
20260505090121 60 16 0.0 0.0 0.01 0.01 0.01 81 989.8
20260505090021 60 279 0.0 0.9 0.01 0.01 0.01 82 989.9
20260505085921 60 288 0.0 1.7 0.01 0.01 0.01 81 989.8
20260505085821 59 270 0.0 1.7 0.01 0.01 0.01 81 989.7
20260505085721 59 302 0.0 1.7 0.01 0.01 0.01 82 989.7
20260505085621 59 277 0.9 2.6 0.01 0.01 0.01 81 989.8
20260505085521 59 270 1.7 2.6 0.01 0.01 0.01 80 989.7
20260505085421 59 270 1.7 2.6 0.01 0.01 0.01 81 989.7
20260505085321 59 270 0.9 1.7 0.01 0.01 0.01 81 989.8
20260505085221 59 271 0.0 0.9 0.01 0.01 0.01 83 989.8
20260505085121 59 279 0.9 1.7 0.01 0.01 0.01 81 989.7
20260505085021 60 258 0.9 1.7 0.01 0.01 0.01 82 989.8
20260505084921 60 254 0.0 1.7 0.01 0.01 0.01 83 989.9
20260505084823 60 292 0.0 0.9 0.01 0.01 0.01 82 989.9
20260505084723 60 292 0.0 0.9 0.01 0.01 0.01 82 989.8
20260505084623 59 279 0.0 0.9 0.01 0.01 0.01 83 989.7
20260505084523 59 270 0.0 0.9 0.01 0.01 0.01 84 989.7
20260505084422 59 270 0.0 0.9 0.01 0.01 0.01 83 989.8
20260505084322 59 270 0.0 0.9 0.01 0.01 0.01 84 989.8
20260505084222 59 270 0.0 0.9 0.01 0.01 0.01 84 989.8
20260505084122 59 270 0.9 1.7 0.01 0.01 0.01 82 989.7
20260505084022 59 270 0.9 1.7 0.01 0.01 0.01 82 989.7
20260505083922 59 270 0.0 1.7 0.01 0.01 0.01 81 989.8
20260505083823 59 270 0.0 0.9 0.01 0.01 0.01 82 989.8
20260505083722 59 270 0.0 0.0 0.01 0.01 0.01 82 989.8
20260505083622 59 270 0.0 0.0 0.01 0.01 0.01 82 989.7
20260505083522 59 270 0.0 0.0 0.01 0.01 0.01 82 989.9
20260505083422 59 270 0.0 0.0 0.01 0.01 0.01 82 989.9
20260505083322 59 270 0.0 0.0 0.01 0.01 0.01 83 989.9
20260505083222 59 270 0.0 0.0 0.01 0.01 0.01 83 989.8
20260505083122 59 270 0.0 0.0 0.01 0.01 0.01 83 989.9
20260505083022 58 270 0.0 0.0 0.01 0.01 0.01 82 989.9
20260505082922 58 270 0.0 0.0 0.01 0.01 0.01 82 989.9
20260505082822 58 270 0.0 1.7 0.01 0.01 0.01 82 989.9
20260505082722 59 270 0.9 1.7 0.01 0.01 0.01 80 989.8
20260505082622 59 270 0.9 1.7 0.01 0.01 0.01 80 989.8
20260505082522 59 270 0.9 1.7 0.01 0.01 0.01 82 989.9
20260505082422 59 263 0.0 1.7 0.01 0.01 0.01 80 989.8
20260505082321 59 258 0.0 0.0 0.01 0.01 0.01 80 989.7
20260505082221 59 270 0.0 0.0 0.01 0.01 0.01 82 989.8
20260505082121 59 270 0.0 0.0 0.01 0.01 0.01 82 989.9
20260505082021 59 270 0.0 0.0 0.01 0.01 0.01 82 989.8
20260505081921 59 270 0.0 0.9 0.01 0.01 0.01 82 989.9
20260505081821 59 270 0.0 0.9 0.01 0.01 0.01 81 989.9
20260505081721 59 270 0.0 0.9 0.01 0.01 0.01 80 989.9
20260505081621 60 277 0.0 0.9 0.01 0.01 0.01 79 989.9
20260505081521 60 333 0.0 0.9 0.01 0.01 0.01 80 989.8
20260505081421 60 351 0.0 0.0 0.01 0.01 0.01 81 990.0
20260505081321 60 353 0.0 0.0 0.01 0.01 0.01 81 990.0
20260505081221 59 20 0.0 0.0 0.01 0.01 0.01 81 989.8
20260505081121 59 45 0.0 0.0 0.00 0.00 0.00 81 989.9
20260505081021 59 68 0.0 0.0 0.00 0.00 0.00 81 990.0
20260505080921 59 111 0.0 0.0 0.00 0.00 0.00 80 989.9
20260505080821 59 340 0.0 0.9 0.00 0.00 0.00 81 990.0
20260505080721 59 314 0.0 0.9 0.00 0.00 0.00 81 989.8
20260505080621 59 292 0.0 0.0 0.00 0.00 0.00 81 989.9
20260505080521 59 292 0.0 0.0 0.00 0.00 0.00 81 989.9
20260505080421 59 285 0.0 0.0 0.00 0.00 0.00 81 989.9
20260505080323 59 347 0.0 0.0 0.00 0.00 0.00 80 990.1
20260505080223 59 35 0.0 0.0 0.00 0.00 0.00 80 990.1
20260505080123 59 23 0.0 0.0 0.00 0.00 0.00 81 989.9
20260505080023 59 44 0.0 0.9 0.00 0.00 0.00 81 990.0
20260505075923 59 82 0.0 0.9 0.00 0.00 0.00 80 990.0
20260505075822 59 112 0.0 0.9 0.00 0.00 0.00 80 990.0
20260505075722 59 292 0.0 0.9 0.00 0.00 0.00 80 990.1
20260505075622 59 292 0.0 0.9 0.00 0.00 0.00 81 990.0
20260505075522 59 292 0.0 0.9 0.00 0.00 0.00 81 990.0
20260505075422 59 292 0.0 0.0 0.00 0.00 0.00 81 990.1
20260505075322 59 312 0.0 0.0 0.00 0.00 0.00 81 990.1
20260505075222 59 7 0.0 0.0 0.00 0.00 0.00 81 990.1
20260505075122 59 34 0.0 0.0 0.00 0.00 0.00 80 990.2
20260505075022 59 79 0.0 0.9 0.00 0.00 0.00 80 990.1
20260505074922 59 34 0.0 0.9 0.00 0.00 0.00 81 990.2
20260505074822 59 11 0.0 0.9 0.00 0.00 0.00 80 990.1
20260505074722 59 125 0.0 0.9 0.00 0.00 0.00 80 990.2
20260505074622 59 270 0.0 0.9 0.00 0.00 0.00 80 990.2
20260505074522 59 278 0.0 0.9 0.00 0.00 0.00 81 990.1
20260505074422 59 281 0.0 0.9 0.00 0.00 0.00 80 990.3
20260505074322 59 41 0.0 0.9 0.00 0.00 0.00 81 990.2
20260505074222 59 102 0.0 0.0 0.00 0.00 0.00 81 990.2
20260505074122 59 135 0.0 0.9 0.00 0.00 0.00 80 990.2
20260505074022 59 270 0.0 0.9 0.00 0.00 0.00 82 990.1
20260505073922 59 290 0.0 0.0 0.00 0.00 0.00 82 990.1
20260505073822 59 338 0.0 0.0 0.00 0.00 0.00 83 990.2
20260505073722 59 328 0.0 0.0 0.00 0.00 0.00 83 990.1
20260505073622 58 248 0.0 0.0 0.00 0.00 0.00 82 990.2
20260505073522 58 248 0.0 0.0 0.00 0.00 0.00 82 990.0
20260505073421 58 261 0.0 0.0 0.00 0.00 0.00 82 990.1
20260505073321 58 270 0.0 0.9 0.00 0.00 0.00 81 990.0
20260505073221 58 273 0.9 0.9 0.00 0.00 0.00 81 990.2
20260505073121 58 324 0.0 0.9 0.00 0.00 0.00 82 990.0
20260505073021 58 45 0.0 0.0 0.00 0.00 0.00 82 990.1
20260505072921 58 322 0.0 0.9 0.00 0.00 0.00 81 990.0
20260505072821 58 270 0.9 1.7 0.00 0.00 0.00 81 990.0
20260505072721 58 259 1.7 4.3 0.00 0.00 0.00 80 990.0
20260505072621 58 258 1.7 4.3 0.00 0.00 0.00 80 990.1
20260505072521 58 264 0.9 2.6 0.00 0.00 0.00 79 990.0
20260505072421 58 250 1.7 2.6 0.00 0.00 0.00 78 990.0
20260505072321 59 269 0.9 2.6 0.00 0.00 0.00 77 990.1
20260505072221 59 270 0.9 2.6 0.00 0.00 0.00 77 990.0
20260505072121 59 311 0.0 1.7 0.00 0.00 0.00 77 989.9
20260505072023 59 283 0.9 2.6 0.00 0.00 0.00 77 990.0
20260505071923 59 274 0.9 2.6 0.00 0.00 0.00 76 989.9
20260505071823 59 256 0.9 1.7 0.00 0.00 0.00 76 989.9
20260505071723 59 268 1.7 2.6 0.00 0.00 0.00 76 989.9
20260505071623 59 270 0.9 2.6 0.00 0.00 0.00 75 989.9
20260505071523 59 270 0.0 0.9 0.00 0.00 0.00 75 989.8
20260505071423 59 270 0.0 0.9 0.00 0.00 0.00 75 989.8
20260505071323 59 270 0.0 0.9 0.00 0.00 0.00 76 989.7
20260505071223 59 270 0.0 0.9 0.00 0.00 0.00 76 989.8
20260505071122 58 270 0.0 0.9 0.00 0.00 0.00 77 989.7
20260505071022 58 270 0.9 0.9 0.00 0.00 0.00 77 989.7
20260505070922 58 270 0.9 0.9 0.00 0.00 0.00 76 989.7
20260505070822 58 270 0.9 0.9 0.00 0.00 0.00 76 989.8
20260505070722 58 270 0.0 0.9 0.00 0.00 0.00 77 989.8
20260505070622 58 269 0.0 0.0 0.00 0.00 0.00 77 989.8
20260505070522 58 250 0.0 0.0 0.00 0.00 0.00 77 989.8
20260505070422 58 248 0.0 0.0 0.00 0.00 0.00 77 989.8
20260505070322 58 254 0.0 0.9 0.00 0.00 0.00 77 989.8
20260505070222 58 270 0.0 0.9 0.00 0.00 0.00 77 989.6
20260505070122 58 270 0.0 0.0 0.00 0.00 0.00 77 989.8
20260505070022 58 270 0.0 0.0 0.00 0.00 0.00 78 989.7
20260505065922 58 270 0.0 0.0 0.00 0.00 0.00 79 989.8
20260505065822 58 270 0.0 0.0 0.00 0.00 0.00 80 989.7
20260505065722 58 270 0.0 0.0 0.00 0.00 0.00 80 989.9
20260505065622 58 270 0.0 0.9 0.00 0.00 0.00 80 989.8
20260505065522 57 270 0.0 0.9 0.00 0.00 0.00 79 989.9
20260505065422 57 270 0.0 0.9 0.00 0.00 0.00 80 989.9
20260505065322 57 270 0.0 0.9 0.00 0.00 0.00 80 989.7
20260505065222 57 270 0.0 0.9 0.00 0.00 0.00 80 989.8
20260505065122 57 270 0.0 0.9 0.00 0.00 0.00 80 989.7
20260505065022 57 270 0.0 0.9 0.00 0.00 0.00 80 989.7
20260505064921 57 270 0.0 0.9 0.00 0.00 0.00 81 989.7
20260505064821 57 270 0.0 0.0 0.00 0.00 0.00 80 989.7
20260505064721 57 270 0.0 0.0 0.00 0.00 0.00 80 989.9
20260505064621 57 270 0.0 0.9 0.00 0.00 0.00 80 989.9
20260505064521 57 270 0.0 0.9 0.00 0.00 0.00 80 989.8
20260505064421 57 270 0.0 0.9 0.00 0.00 0.00 80 989.8
20260505064321 57 270 0.0 0.9 0.00 0.00 0.00 81 989.8
20260505064221 57 270 0.9 1.7 0.00 0.00 0.00 81 989.8
20260505064121 57 270 0.9 1.7 0.00 0.00 0.00 81 989.8
20260505064021 57 270 0.0 1.7 0.00 0.00 0.00 81 989.8
20260505063921 57 270 0.0 0.9 0.00 0.00 0.00 81 989.9
20260505063821 57 270 0.9 0.9 0.00 0.00 0.00 82 989.9
20260505063721 56 270 0.9 0.9 0.00 0.00 0.00 82 989.8
20260505063621 56 270 0.9 1.7 0.00 0.00 0.00 82 989.8
20260505063521 56 270 0.9 1.7 0.00 0.00 0.00 82 989.9
20260505063421 56 270 0.9 1.7 0.00 0.00 0.00 81 989.9
20260505063321 56 270 0.9 0.9 0.00 0.00 0.00 81 989.9
20260505063223 56 270 0.9 1.7 0.00 0.00 0.00 81 989.9
20260505063123 56 270 0.9 1.7 0.00 0.00 0.00 82 989.8
20260505063023 56 270 0.9 1.7 0.00 0.00 0.00 81 989.8
20260505062923 56 270 1.7 1.7 0.00 0.00 0.00 81 989.7
20260505062822 56 270 0.9 1.7 0.00 0.00 0.00 81 989.9
20260505062722 56 270 0.9 1.7 0.00 0.00 0.00 81 989.9
20260505062622 56 270 0.9 0.9 0.00 0.00 0.00 81 989.7
20260505062522 56 270 0.9 1.7 0.00 0.00 0.00 81 989.8
20260505062422 56 270 0.9 1.7 0.00 0.00 0.00 81 990.0
20260505062322 56 270 0.9 1.7 0.00 0.00 0.00 81 989.8
20260505062222 56 270 0.9 1.7 0.00 0.00 0.00 81 989.8
20260505062122 56 270 0.9 0.9 0.00 0.00 0.00 81 989.7
20260505062022 56 270 0.0 0.9 0.00 0.00 0.00 80 989.7
20260505061922 56 270 0.0 0.9 0.00 0.00 0.00 80 989.9
20260505061822 56 270 0.0 0.9 0.00 0.00 0.00 80 989.9
20260505061722 56 270 0.0 0.9 0.00 0.00 0.00 80 989.8
20260505061622 56 270 0.9 0.9 0.00 0.00 0.00 80 989.7
20260505061522 56 270 0.9 0.9 0.00 0.00 0.00 81 989.8
20260505061422 56 270 0.9 2.6 0.00 0.00 0.00 81 989.9
20260505061322 56 270 0.9 2.6 0.00 0.00 0.00 81 989.9
20260505061222 56 270 0.9 1.7 0.00 0.00 0.00 81 989.8
20260505061122 56 270 0.9 1.7 0.00 0.00 0.00 81 989.8
20260505061022 56 270 0.9 1.7 0.00 0.00 0.00 81 989.9
20260505060922 56 270 0.9 1.7 0.00 0.00 0.00 81 989.7
20260505060822 56 251 0.9 2.6 0.00 0.00 0.00 82 989.6
20260505060721 56 263 1.7 4.3 0.00 0.00 0.00 81 989.8
20260505060621 56 270 1.7 4.3 0.00 0.00 0.00 82 989.8
20260505060521 56 270 1.7 2.6 0.00 0.00 0.00 82 989.8
20260505060421 56 270 0.0 1.7 0.00 0.00 0.00 82 989.8
20260505060321 56 270 0.0 0.9 0.00 0.00 0.00 83 989.8
20260505060221 56 270 0.0 0.9 0.00 0.00 0.00 83 989.8
20260505060121 56 285 0.0 0.9 0.00 0.00 0.00 82 989.7
20260505060021 56 292 0.0 0.0 0.00 0.00 0.00 82 989.7
20260505055921 56 292 0.0 0.0 0.00 0.00 0.00 82 989.7
20260505055821 56 292 0.0 0.0 0.00 0.00 0.00 82 989.7
20260505055721 56 292 0.0 0.0 0.00 0.00 0.00 82 989.6
20260505055621 56 292 0.0 0.0 0.00 0.00 0.00 81 989.8
20260505055521 56 292 0.0 0.0 0.00 0.00 0.00 81 989.8
20260505055421 56 292 0.0 0.0 0.00 0.00 0.00 81 989.7
20260505055321 56 292 0.0 0.0 0.00 0.00 0.00 81 989.6
20260505055221 56 292 0.0 0.0 0.00 0.00 0.00 82 989.6
20260505055121 55 292 0.0 0.0 0.00 0.00 0.00 82 989.6
20260505055021 55 292 0.0 0.0 0.00 0.00 0.00 82 989.6
20260505054921 55 293 0.0 0.0 0.00 0.00 0.00 82 989.6
20260505054821 55 313 0.0 0.0 0.00 0.00 0.00 82 989.5
20260505054723 55 327 0.0 0.0 0.00 0.00 0.00 83 989.5
20260505054623 55 338 0.0 0.0 0.00 0.00 0.00 83 989.6
20260505054523 55 338 0.0 0.0 0.00 0.00 0.00 84 989.6
20260505054422 55 338 0.0 0.0 0.00 0.00 0.00 84 989.5
20260505054322 55 313 0.0 0.0 0.00 0.00 0.00 84 989.5
20260505054222 55 292 0.0 0.0 0.00 0.00 0.00 84 989.6
20260505054122 55 308 0.0 0.0 0.00 0.00 0.00 84 989.6
20260505054022 55 315 0.0 0.0 0.00 0.00 0.00 85 989.6
20260505053922 55 315 0.0 0.0 0.00 0.00 0.00 85 989.6
20260505053822 55 315 0.0 0.0 0.00 0.00 0.00 85 989.5
20260505053722 55 299 0.0 0.0 0.00 0.00 0.00 85 989.5
20260505053622 55 292 0.0 0.0 0.00 0.00 0.00 84 989.6
20260505053522 55 292 0.0 0.0 0.00 0.00 0.00 84 989.6
20260505053422 55 292 0.0 0.0 0.00 0.00 0.00 84 989.6
20260505053322 55 292 0.0 0.0 0.00 0.00 0.00 83 989.5
20260505053222 55 292 0.0 0.0 0.00 0.00 0.00 83 989.7
20260505053122 55 292 0.0 0.0 0.00 0.00 0.00 83 989.5
20260505053022 55 292 0.0 0.0 0.00 0.00 0.00 83 989.5
20260505052922 55 292 0.0 0.0 0.00 0.00 0.00 83 989.5
20260505052822 55 292 0.0 0.0 0.00 0.00 0.00 82 989.5
20260505052722 56 292 0.0 0.0 0.00 0.00 0.00 82 989.5
20260505052622 56 292 0.0 0.0 0.00 0.00 0.00 82 989.5
20260505052522 56 309 0.0 0.0 0.00 0.00 0.00 81 989.6
20260505052422 56 330 0.0 0.0 0.00 0.00 0.00 81 989.6
20260505052322 56 354 0.0 0.0 0.00 0.00 0.00 80 989.5
20260505052221 56 338 0.0 0.0 0.00 0.00 0.00 79 989.5
20260505052122 56 340 0.0 0.0 0.00 0.00 0.00 78 989.5
20260505052021 56 32 0.0 0.0 0.00 0.00 0.00 78 989.5
20260505051921 56 112 0.0 0.0 0.00 0.00 0.00 77 989.5
20260505051822 56 112 0.0 0.9 0.00 0.00 0.00 77 989.5
20260505051721 56 116 0.9 1.7 0.00 0.00 0.00 77 989.5
20260505051621 56 127 0.9 1.7 0.00 0.00 0.00 77 989.6
20260505051521 56 120 1.7 1.7 0.00 0.00 0.00 78 989.6
20260505051421 55 135 0.9 1.7 0.00 0.00 0.00 79 989.6
20260505051321 55 123 0.9 1.7 0.00 0.00 0.00 80 989.7
20260505051221 55 146 0.0 1.7 0.00 0.00 0.00 81 989.8
20260505051121 55 112 0.0 0.9 0.00 0.00 0.00 82 989.7
20260505051021 55 45 0.0 0.0 0.00 0.00 0.00 83 989.7
20260505050921 55 53 0.0 0.0 0.00 0.00 0.00 83 989.8
20260505050821 55 134 0.0 0.0 0.00 0.00 0.00 83 989.7
20260505050721 55 135 0.0 0.0 0.00 0.00 0.00 83 989.7
20260505050621 55 135 0.0 0.0 0.00 0.00 0.00 83 989.9
20260505050521 55 135 0.0 0.0 0.00 0.00 0.00 83 989.8
20260505050421 55 135 0.0 0.0 0.00 0.00 0.00 82 989.8
20260505050321 55 135 0.0 0.0 0.00 0.00 0.00 82 989.7
20260505050221 55 135 0.0 0.0 0.00 0.00 0.00 81 989.8
20260505050123 55 135 0.0 0.0 0.00 0.00 0.00 81 989.8
20260505041721 53 259 0.0 0.0 0.00 0.00 0.00 85 989.8
20260505041621 53 270 0.0 0.0 0.00 0.00 0.00 85 989.7
20260505041523 53 270 0.0 0.0 0.00 0.00 0.00 85 989.7
20260505041423 53 270 0.0 0.0 0.00 0.00 0.00 85 989.7
20260505041323 53 270 0.0 0.0 0.00 0.00 0.00 85 989.8
20260505041223 53 270 0.0 0.0 0.00 0.00 0.00 85 989.8
20260505041123 53 270 0.0 0.0 0.00 0.00 0.00 85 989.8
20260505041022 53 270 0.0 0.0 0.00 0.00 0.00 85 989.9
20260505040922 53 270 0.0 0.0 0.00 0.00 0.00 85 989.8
20260505040822 53 270 0.0 0.0 0.00 0.00 0.00 85 989.9
20260505040722 53 270 0.0 0.0 0.00 0.00 0.00 85 989.8
20260505040622 53 270 0.0 0.0 0.00 0.00 0.00 85 989.8
20260505040522 53 270 0.0 0.0 0.00 0.00 0.00 85 990.0
20260505040422 53 270 0.0 0.0 0.00 0.00 0.00 85 989.8
20260505040322 53 270 0.0 0.0 0.00 0.00 0.00 85 989.9
20260505040222 53 270 0.0 0.9 0.00 0.00 0.00 85 989.7
20260505040122 53 270 0.0 0.9 0.00 0.00 0.00 85 989.8
20260505040022 53 270 0.9 1.7 0.00 0.00 0.00 85 989.8
20260505035922 53 270 0.9 1.7 0.00 0.00 0.00 85 989.7
20260505035822 53 270 0.0 0.9 0.00 0.00 0.00 85 989.7
20260505035722 53 270 0.0 0.9 0.00 0.00 0.00 85 989.7
20260505035622 53 276 0.0 0.9 0.00 0.00 0.00 85 989.8
20260505035522 53 315 0.0 0.0 0.00 0.00 0.00 85 989.9
20260505035422 53 315 0.0 0.0 0.00 0.00 0.00 86 989.7
20260505035322 52 315 0.0 0.0 0.00 0.00 0.00 86 989.8
20260505035222 52 325 0.0 0.0 0.00 0.00 0.00 86 989.9
20260505035122 52 68 0.0 0.0 0.00 0.00 0.00 86 989.9
20260505035022 52 68 0.0 0.0 0.00 0.00 0.00 86 989.7
20260505034922 52 68 0.0 0.0 0.00 0.00 0.00 86 989.8
20260505034822 52 86 0.0 0.0 0.00 0.00 0.00 86 989.8
20260505034722 52 90 0.0 0.0 0.00 0.00 0.00 86 989.7
20260505034622 52 91 0.0 0.9 0.00 0.00 0.00 86 989.7
20260505034522 52 109 0.0 0.9 0.00 0.00 0.00 86 989.7
20260505034421 52 292 0.0 0.9 0.00 0.00 0.00 86 989.8
20260505034321 52 292 0.0 0.0 0.00 0.00 0.00 86 989.7
20260505034221 52 292 0.0 0.0 0.00 0.00 0.00 86 989.7
20260505034121 52 292 0.0 0.0 0.00 0.00 0.00 86 989.6
20260505034021 52 292 0.0 0.0 0.00 0.00 0.00 86 989.7
20260505033921 52 292 0.0 0.0 0.00 0.00 0.00 86 989.7
20260505033821 51 291 0.0 0.9 0.00 0.00 0.00 86 989.6
20260505033721 51 272 0.0 0.9 0.00 0.00 0.00 87 989.7
20260505033621 51 270 0.0 0.0 0.00 0.00 0.00 87 989.7
20260505033521 51 270 0.0 0.0 0.00 0.00 0.00 87 989.5
20260505033421 51 270 0.0 0.0 0.00 0.00 0.00 87 989.6
20260505033321 51 270 0.0 0.0 0.00 0.00 0.00 86 989.7
20260505033221 52 256 0.0 0.0 0.00 0.00 0.00 86 989.7
20260505033121 52 270 0.0 0.0 0.00 0.00 0.00 86 989.6
20260505033021 52 164 0.0 0.0 0.00 0.00 0.00 85 989.5
20260505032923 52 135 0.0 0.0 0.00 0.00 0.00 85 989.7
20260505032823 52 135 0.0 0.0 0.00 0.00 0.00 85 989.8
20260505032723 52 135 0.0 0.0 0.00 0.00 0.00 85 989.6
20260505032623 52 135 0.0 0.0 0.00 0.00 0.00 85 989.5
20260505032523 52 135 0.0 0.0 0.00 0.00 0.00 85 989.5
20260505032422 52 135 0.0 0.0 0.00 0.00 0.00 85 989.5
20260505032322 52 135 0.0 0.0 0.00 0.00 0.00 84 989.5
20260505032222 52 135 0.0 0.0 0.00 0.00 0.00 84 989.6
20260505032122 53 135 0.0 0.0 0.00 0.00 0.00 84 989.6
20260505032022 53 135 0.0 0.0 0.00 0.00 0.00 83 989.6
20260505031922 53 135 0.0 0.0 0.00 0.00 0.00 83 989.5
20260505031822 53 135 0.0 0.0 0.00 0.00 0.00 83 989.6
20260505031722 53 135 0.0 0.0 0.00 0.00 0.00 83 989.6
20260505031622 53 135 0.0 0.0 0.00 0.00 0.00 83 989.7
20260505031522 53 135 0.0 0.0 0.00 0.00 0.00 83 989.8
20260505031422 54 135 0.0 0.0 0.00 0.00 0.00 82 989.8
20260505031322 54 135 0.0 0.0 0.00 0.00 0.00 82 989.8
20260505031222 54 135 0.0 0.0 0.00 0.00 0.00 82 989.8
20260505031122 54 135 0.0 0.0 0.00 0.00 0.00 82 989.9
20260505031022 54 135 0.0 0.0 0.00 0.00 0.00 82 989.7
20260505030922 54 135 0.0 0.0 0.00 0.00 0.00 82 989.7
20260505030822 54 135 0.0 0.0 0.00 0.00 0.00 82 989.7
20260505030722 54 135 0.0 0.0 0.00 0.00 0.00 82 990.0
20260505030622 54 135 0.0 0.0 0.00 0.00 0.00 81 989.8
20260505030522 54 135 0.0 0.0 0.00 0.00 0.00 81 989.7
20260505030422 54 135 0.0 0.0 0.00 0.00 0.00 81 989.9
20260505030322 54 135 0.0 0.0 0.00 0.00 0.00 81 989.7
20260505030222 54 135 0.0 0.0 0.00 0.00 0.00 81 989.8
20260505030122 54 135 0.0 0.0 0.00 0.00 0.00 81 989.9
20260505030022 54 135 0.0 0.0 0.00 0.00 0.00 81 989.9
20260505025921 54 135 0.0 0.0 0.00 0.00 0.00 81 989.9
20260505025821 54 135 0.0 0.0 0.00 0.00 0.00 82 989.9
20260505025721 53 135 0.0 0.0 0.00 0.00 0.00 82 989.8
20260505025621 53 135 0.0 0.0 0.00 0.00 0.00 83 989.9
20260505025521 53 135 0.0 0.0 0.00 0.00 0.00 84 990.0
20260505025421 52 135 0.0 0.0 0.00 0.00 0.00 85 990.0
20260505025321 52 135 0.0 0.0 0.00 0.00 0.00 86 990.0
20260505025221 52 135 0.0 0.0 0.00 0.00 0.00 85 990.0
20260505025121 52 135 0.0 0.0 0.00 0.00 0.00 85 990.0
20260505025021 52 135 0.0 0.0 0.00 0.00 0.00 85 990.0
20260505024921 52 135 0.0 0.0 0.00 0.00 0.00 85 989.9
20260505024821 53 135 0.0 0.0 0.00 0.00 0.00 85 990.0
20260505024721 53 135 0.0 0.0 0.00 0.00 0.00 85 990.0
20260505024621 53 135 0.0 0.0 0.00 0.00 0.00 85 990.0
20260505024523 53 135 0.0 0.0 0.00 0.00 0.00 85 990.0
20260505024423 53 135 0.0 0.0 0.00 0.00 0.00 85 989.9
20260505024323 53 135 0.0 0.0 0.00 0.00 0.00 85 990.1
20260505024223 53 135 0.0 0.0 0.00 0.00 0.00 85 990.1
20260505024122 53 135 0.0 0.0 0.00 0.00 0.00 85 990.0
20260505024022 53 135 0.0 0.0 0.00 0.00 0.00 85 990.0
20260505023922 53 135 0.0 0.0 0.00 0.00 0.00 84 990.1
20260505023822 53 135 0.0 0.0 0.00 0.00 0.00 84 990.1
20260505023722 54 135 0.0 0.0 0.00 0.00 0.00 83 990.1
20260505023622 54 135 0.0 0.0 0.00 0.00 0.00 83 990.1
20260505023522 54 135 0.0 0.0 0.00 0.00 0.00 82 990.0
20260505023422 55 135 0.0 0.0 0.00 0.00 0.00 82 990.1
20260505023322 55 135 0.0 0.0 0.00 0.00 0.00 81 990.0
20260505023222 55 135 0.0 0.0 0.00 0.00 0.00 80 990.1
20260505023122 54 135 0.0 0.0 0.00 0.00 0.00 80 990.2
20260505023022 54 135 0.0 0.0 0.00 0.00 0.00 80 990.2
20260505022922 54 135 0.0 0.0 0.00 0.00 0.00 81 990.3
20260505022822 54 135 0.0 0.0 0.00 0.00 0.00 81 990.2
20260505022722 54 135 0.0 0.0 0.00 0.00 0.00 81 990.2
20260505022622 54 135 0.0 0.0 0.00 0.00 0.00 81 990.3
20260505022522 54 135 0.0 0.0 0.00 0.00 0.00 81 990.4
20260505022422 54 135 0.0 0.0 0.00 0.00 0.00 82 990.4
20260505022322 54 135 0.0 0.0 0.00 0.00 0.00 82 990.4
20260505022222 54 135 0.0 0.0 0.00 0.00 0.00 82 990.5
20260505022122 54 135 0.0 0.0 0.00 0.00 0.00 83 990.4
20260505022022 54 135 0.0 0.0 0.00 0.00 0.00 83 990.6
20260505021922 54 135 0.0 0.0 0.00 0.00 0.00 83 990.4
20260505021821 54 135 0.0 0.0 0.00 0.00 0.00 83 990.4
20260505021721 54 135 0.0 0.0 0.00 0.00 0.00 82 990.4
20260505021621 54 135 0.0 0.0 0.00 0.00 0.00 82 990.4
20260505021521 54 135 0.0 0.0 0.00 0.00 0.00 82 990.4
20260505021421 54 135 0.0 0.0 0.00 0.00 0.00 82 990.5
20260505021321 54 135 0.0 0.0 0.00 0.00 0.00 82 990.5
20260505021221 55 135 0.0 0.0 0.00 0.00 0.00 81 990.6
20260505021121 55 135 0.0 0.0 0.00 0.00 0.00 81 990.5
20260505021021 54 135 0.0 0.0 0.00 0.00 0.00 81 990.5
20260505020921 54 135 0.0 0.9 0.00 0.00 0.00 81 990.6
20260505020821 54 135 0.0 0.9 0.00 0.00 0.00 81 990.6
20260505020721 54 135 0.0 0.9 0.00 0.00 0.00 82 990.7
20260505020621 54 198 0.0 0.9 0.00 0.00 0.00 82 990.6
20260505020521 54 270 0.0 0.0 0.00 0.00 0.00 83 990.7
20260505020421 54 270 0.0 0.0 0.00 0.00 0.00 83 990.7
20260505020321 53 270 0.0 0.0 0.00 0.00 0.00 84 990.6
20260505020221 53 270 0.0 0.0 0.00 0.00 0.00 85 990.7
20260505020123 53 270 0.0 0.0 0.00 0.00 0.00 85 990.7
20260505020023 53 270 0.0 0.0 0.00 0.00 0.00 85 990.6
20260505015923 53 270 0.0 0.0 0.00 0.00 0.00 85 990.7
20260505015823 53 270 0.0 0.0 0.00 0.00 0.00 85 990.8
20260505015723 53 270 0.0 0.0 0.00 0.00 0.00 84 990.8
20260505015623 54 270 0.0 0.0 0.00 0.00 0.00 84 990.8
20260505015522 54 270 0.0 1.7 0.00 0.00 0.00 84 990.7
20260505015422 54 270 0.9 1.7 0.00 0.00 0.00 84 990.7
20260505015322 55 145 0.0 0.9 0.00 0.00 0.00 82 990.7
20260505015222 55 135 0.0 0.9 0.00 0.00 0.00 82 990.7
20260505015122 55 135 0.0 0.0 0.00 0.00 0.00 81 990.7
20260505015022 55 135 0.0 0.0 0.00 0.00 0.00 81 990.8
20260505014922 55 135 0.0 0.0 0.00 0.00 0.00 81 990.8
20260505014822 55 135 0.0 0.0 0.00 0.00 0.00 81 990.8
20260505014722 55 135 0.0 0.0 0.00 0.00 0.00 81 990.9
20260505014622 55 135 0.0 0.9 0.00 0.00 0.00 81 990.8
20260505014522 55 135 0.0 0.9 0.00 0.00 0.00 81 990.8
20260505014422 55 135 0.0 0.9 0.00 0.00 0.00 82 990.8
20260505014322 55 135 0.0 0.9 0.00 0.00 0.00 82 990.7
20260505014222 55 135 0.0 0.0 0.00 0.00 0.00 83 990.8
20260505014122 55 135 0.0 0.0 0.00 0.00 0.00 83 990.9
20260505014022 55 135 0.0 0.0 0.00 0.00 0.00 83 990.8
20260505013922 55 135 0.0 0.0 0.00 0.00 0.00 82 990.8
20260505013822 55 135 0.0 0.0 0.00 0.00 0.00 82 990.8
20260505013722 55 135 0.0 0.0 0.00 0.00 0.00 82 990.7
20260505013622 55 135 0.0 0.0 0.00 0.00 0.00 82 990.8
20260505013521 55 135 0.0 0.0 0.00 0.00 0.00 81 990.7
20260505013421 56 135 0.0 0.0 0.00 0.00 0.00 81 990.7
20260505013321 56 135 0.0 0.0 0.00 0.00 0.00 81 990.5
20260505013221 56 135 0.0 0.0 0.00 0.00 0.00 81 990.8
20260505013121 56 135 0.0 0.0 0.00 0.00 0.00 81 990.8
20260505013021 56 135 0.0 0.0 0.00 0.00 0.00 81 990.9
20260505012921 55 135 0.0 0.0 0.00 0.00 0.00 81 990.9
20260505012821 55 151 0.0 0.0 0.00 0.00 0.00 81 990.7
20260505012721 55 180 0.0 0.0 0.00 0.00 0.00 81 990.7
20260505012621 55 192 0.0 0.0 0.00 0.00 0.00 82 991.0
20260505012522 55 202 0.0 0.0 0.00 0.00 0.00 82 990.8
20260505012421 55 202 0.0 0.0 0.00 0.00 0.00 82 990.8
20260505012321 55 202 0.0 0.0 0.00 0.00 0.00 82 990.9
20260505012221 55 227 0.0 0.0 0.00 0.00 0.00 83 991.0
20260505012121 55 248 0.0 0.0 0.00 0.00 0.00 83 991.0
20260505012021 55 249 0.0 0.0 0.00 0.00 0.00 83 991.1
20260505011921 55 269 0.0 0.0 0.00 0.00 0.00 83 991.0
20260505011821 55 270 0.0 0.0 0.00 0.00 0.00 84 991.0
20260505011721 55 270 0.0 0.9 0.00 0.00 0.00 84 991.0
20260505011623 55 270 0.0 0.9 0.00 0.00 0.00 83 991.2
20260505011523 55 270 0.9 2.6 0.00 0.00 0.00 83 991.1
20260505011423 55 270 1.7 2.6 0.00 0.00 0.00 83 991.0
20260505011323 55 270 1.7 2.6 0.00 0.00 0.00 83 991.1
20260505011223 55 270 1.7 2.6 0.00 0.00 0.00 83 991.0
20260505011123 55 270 1.7 2.6 0.00 0.00 0.00 84 991.0
20260505011023 55 270 0.9 1.7 0.00 0.00 0.00 83 990.9
20260505010922 55 268 0.9 1.7 0.00 0.00 0.00 83 991.0
20260505010823 55 248 0.9 0.9 0.00 0.00 0.00 83 991.0
20260505010722 55 248 0.0 0.9 0.00 0.00 0.00 83 991.0
20260505010622 55 248 0.0 0.9 0.00 0.00 0.00 83 991.0
20260505010522 55 248 0.0 0.9 0.00 0.00 0.00 83 990.9
20260505010422 55 248 0.0 0.9 0.00 0.00 0.00 83 991.0
20260505010322 55 248 0.0 0.9 0.00 0.00 0.00 83 991.0
20260505010222 55 248 0.0 0.0 0.00 0.00 0.00 83 991.0
20260505010122 55 248 0.0 0.0 0.00 0.00 0.00 83 991.0
20260505010022 55 248 0.0 0.0 0.00 0.00 0.00 83 991.0
20260505005922 55 248 0.0 0.0 0.00 0.00 0.00 83 991.1
20260505005822 55 248 0.0 0.0 0.00 0.00 0.00 84 991.0
20260505005722 56 248 0.0 0.9 0.00 0.00 0.00 82 991.1
20260505005622 56 248 0.0 0.9 0.00 0.00 0.00 82 991.1
20260505005522 56 220 0.0 0.9 0.00 0.00 0.00 82 991.1
20260505005422 56 158 0.0 0.0 0.00 0.00 0.00 81 991.2
20260505005322 56 158 0.0 0.0 0.00 0.00 0.00 81 991.0
20260505005222 56 158 0.0 0.0 0.00 0.00 0.00 80 991.2
20260505005122 56 158 0.0 0.0 0.00 0.00 0.00 80 991.1
20260505005022 56 158 0.0 0.0 0.00 0.00 0.00 80 991.2
20260505004922 56 158 0.0 0.0 0.00 0.00 0.00 80 991.2
20260505004822 56 158 0.0 0.0 0.00 0.00 0.00 80 991.2
20260505004722 56 158 0.0 0.0 0.00 0.00 0.00 81 991.0
20260505004622 56 158 0.0 0.0 0.00 0.00 0.00 80 991.2
20260505004522 56 158 0.0 0.0 0.00 0.00 0.00 80 991.2
20260505004421 56 158 0.0 0.9 0.00 0.00 0.00 80 991.1
20260505004321 56 158 0.0 0.9 0.00 0.00 0.00 80 991.1
20260505004221 56 158 0.0 0.9 0.00 0.00 0.00 80 991.1
20260505004121 56 158 0.0 0.9 0.00 0.00 0.00 80 991.3
20260505004021 56 158 0.0 0.0 0.00 0.00 0.00 80 991.3
20260505003921 56 158 0.0 0.0 0.00 0.00 0.00 79 991.3
20260505003821 56 158 0.0 0.0 0.00 0.00 0.00 78 991.3
20260505003721 57 158 0.0 0.0 0.00 0.00 0.00 79 991.4
20260505003621 57 158 0.0 0.0 0.00 0.00 0.00 79 991.3
20260505003521 57 158 0.0 0.0 0.00 0.00 0.00 79 991.4
20260505003421 57 158 0.0 0.0 0.00 0.00 0.00 78 991.5
20260505003321 56 158 0.0 0.0 0.00 0.00 0.00 78 991.4
20260505003221 56 158 0.0 0.0 0.00 0.00 0.00 78 991.4
20260505003121 56 158 0.0 0.0 0.00 0.00 0.00 79 991.4
20260505003021 56 158 0.0 0.0 0.00 0.00 0.00 79 991.5
20260505002921 56 158 0.0 0.0 0.00 0.00 0.00 79 991.5
20260505002821 56 158 0.0 0.0 0.00 0.00 0.00 80 991.5
20260505002721 55 158 0.0 0.0 0.00 0.00 0.00 80 991.6
20260505002621 55 158 0.0 0.0 0.00 0.00 0.00 81 991.4
20260505002521 55 158 0.0 0.0 0.00 0.00 0.00 82 991.4
20260505002423 55 158 0.0 0.0 0.00 0.00 0.00 81 991.4
20260505002323 55 158 0.0 0.0 0.00 0.00 0.00 81 991.6
20260505002223 56 158 0.0 0.0 0.00 0.00 0.00 81 991.6
20260505002123 56 158 0.0 0.0 0.00 0.00 0.00 81 991.6
20260505002023 56 158 0.0 0.0 0.00 0.00 0.00 81 991.5
20260505001923 56 158 0.0 0.0 0.00 0.00 0.00 81 991.6
20260505001822 56 158 0.0 0.0 0.00 0.00 0.00 80 991.6
20260505001722 56 158 0.0 0.0 0.00 0.00 0.00 80 991.6
20260505001622 56 158 0.0 0.0 0.00 0.00 0.00 80 991.7
20260505001522 57 158 0.0 0.0 0.00 0.00 0.00 79 991.6
20260505001422 57 158 0.0 0.0 0.00 0.00 0.00 79 991.5
20260505001322 57 158 0.0 0.0 0.00 0.00 0.00 77 991.5
20260505001222 57 158 0.0 0.0 0.00 0.00 0.00 77 991.5
20260505001122 57 158 0.0 0.0 0.00 0.00 0.00 76 991.6
20260505001022 56 158 0.0 0.0 0.00 0.00 0.00 77 991.6
20260505000922 56 158 0.0 0.0 0.00 0.00 0.00 78 991.5
20260505000822 56 158 0.0 0.0 0.00 0.00 0.00 80 991.6
20260505000722 56 158 0.0 0.0 0.00 0.00 0.00 80 991.5
20260505000622 56 158 0.0 0.0 0.00 0.00 0.00 80 991.6
20260505000522 56 158 0.0 0.0 0.00 0.00 0.00 80 991.6
20260505000422 56 158 0.0 0.0 0.00 0.00 0.00 80 991.6
20260505000322 56 158 0.0 0.0 0.00 0.00 0.00 80 991.7
20260505000222 56 158 0.0 0.0 0.00 0.00 0.00 80 991.7
20260505000122 56 158 0.0 0.0 0.00 0.00 0.00 80 991.8
20260505000022 56 158 0.0 0.0 0.00 0.00 0.00 80 991.7
20260504235922 56 158 0.0 0.0 0.00 0.00 0.00 80 991.7
20260504235822 57 158 0.0 0.0 0.00 0.00 0.00 79 991.6
20260504235722 57 158 0.0 0.0 0.00 0.00 0.00 79 991.7
20260504235622 57 158 0.0 0.0 0.00 0.00 0.00 79 991.8
20260504235522 57 158 0.0 0.0 0.00 0.00 0.00 78 991.6
20260504235422 57 158 0.0 0.0 0.00 0.00 0.00 78 991.7
20260504235321 57 158 0.0 0.0 0.00 0.00 0.00 77 991.7
20260504235221 57 158 0.0 0.0 0.00 0.00 0.00 77 991.8
20260504235121 57 158 0.0 0.0 0.00 0.00 0.00 77 991.8
20260504235021 58 158 0.0 0.0 0.00 0.00 0.00 77 991.8
20260504234921 58 158 0.0 0.0 0.00 0.00 0.00 76 991.8
20260504234821 58 158 0.0 0.0 0.00 0.00 0.00 76 991.8
20260504234721 58 158 0.0 0.0 0.00 0.00 0.00 76 991.7
20260504234621 58 158 0.0 0.0 0.00 0.00 0.00 75 991.7
20260504234521 58 158 0.0 0.9 0.00 0.00 0.00 74 991.7
20260504234421 58 163 0.0 0.9 0.00 0.00 0.00 73 991.9
20260504234321 58 180 0.0 0.9 0.00 0.00 0.00 73 991.9
20260504234221 58 180 0.0 0.9 0.00 0.00 0.00 74 991.8
20260504234121 58 180 0.0 0.9 0.00 0.00 0.00 74 991.7
20260504234021 58 180 0.0 0.9 0.00 0.00 0.00 74 991.7
20260504233921 58 180 0.0 0.0 0.00 0.00 0.00 74 991.8
20260504233821 58 195 0.0 0.0 0.00 0.00 0.00 76 992.0
20260504233721 58 202 0.0 0.0 0.00 0.00 0.00 77 991.9
20260504233621 58 202 0.0 0.0 0.00 0.00 0.00 77 991.9
20260504233523 58 202 0.0 0.0 0.00 0.00 0.00 77 991.9
20260504233423 58 202 0.0 0.0 0.00 0.00 0.00 76 992.0
20260504233323 58 202 0.0 0.0 0.00 0.00 0.00 76 991.9
20260504233223 58 202 0.0 0.0 0.00 0.00 0.00 76 991.9
20260504233123 58 202 0.0 0.0 0.00 0.00 0.00 76 991.9
20260504233023 58 202 0.0 0.0 0.00 0.00 0.00 76 991.9
20260504232922 58 202 0.0 0.0 0.00 0.00 0.00 76 991.8
20260504232822 58 202 0.0 0.0 0.00 0.00 0.00 76 992.0
20260504232722 58 202 0.0 0.0 0.00 0.00 0.00 76 992.0
20260504232622 57 202 0.0 0.0 0.00 0.00 0.00 76 992.0
20260504232522 57 202 0.0 0.0 0.00 0.00 0.00 76 992.0
20260504232422 57 202 0.0 0.0 0.00 0.00 0.00 77 992.0
20260504232322 57 226 0.0 0.0 0.00 0.00 0.00 77 991.9
20260504232222 57 257 0.0 0.0 0.00 0.00 0.00 77 992.0
20260504232122 57 270 0.0 0.0 0.00 0.00 0.00 78 992.1
20260504232022 57 270 0.0 0.0 0.00 0.00 0.00 79 992.0
20260504231922 57 270 0.0 0.0 0.00 0.00 0.00 79 991.9
20260504231822 57 270 0.0 0.0 0.00 0.00 0.00 79 992.0
20260504231722 57 270 0.0 0.0 0.00 0.00 0.00 79 991.9
20260504231622 57 270 0.0 0.0 0.00 0.00 0.00 78 992.0
20260504231522 57 270 0.0 0.0 0.00 0.00 0.00 78 992.1
20260504231422 57 270 0.0 0.0 0.00 0.00 0.00 78 992.1
20260504231322 58 270 0.0 0.0 0.00 0.00 0.00 78 992.0
20260504231222 58 270 0.0 0.0 0.00 0.00 0.00 77 991.9
20260504231122 58 270 0.0 0.0 0.00 0.00 0.00 77 992.1
20260504231022 58 270 0.0 0.0 0.00 0.00 0.00 77 992.2
20260504230922 58 270 0.0 0.0 0.00 0.00 0.00 77 992.0
20260504230822 58 270 0.0 0.0 0.00 0.00 0.00 77 992.0
20260504230722 58 270 0.0 0.0 0.00 0.00 0.00 77 992.1
20260504230622 58 270 0.0 0.0 0.00 0.00 0.00 77 992.2
20260504230522 58 270 0.0 0.0 0.00 0.00 0.00 77 992.2
20260504230422 57 270 0.0 0.0 0.00 0.00 0.00 77 992.1
20260504230322 57 270 0.0 0.0 0.00 0.00 0.00 78 992.1
20260504230222 57 270 0.0 0.0 0.00 0.00 0.00 78 992.1
20260504230122 57 270 0.0 0.0 0.00 0.00 0.00 78 992.1
20260504230021 57 270 0.0 0.0 0.00 0.00 0.00 78 992.0
20260504225921 57 270 0.0 0.0 0.00 0.00 0.00 78 992.0
20260504225821 57 270 0.0 0.0 0.00 0.00 0.00 78 992.0
20260504225721 57 270 0.0 0.9 0.00 0.00 0.00 78 992.1
20260504225621 57 270 0.9 0.9 0.00 0.00 0.00 78 992.0
20260504225521 57 255 0.0 0.9 0.00 0.00 0.00 79 992.0
20260504225421 57 248 0.0 0.0 0.00 0.00 0.00 79 991.9
20260504225321 57 248 0.0 0.0 0.00 0.00 0.00 79 992.1
20260504225221 57 248 0.0 0.0 0.00 0.00 0.00 79 992.0
20260504225121 57 248 0.0 0.0 0.00 0.00 0.00 79 992.0
20260504225021 57 248 0.0 0.0 0.00 0.00 0.00 79 992.1
20260504224921 57 248 0.0 0.0 0.00 0.00 0.00 79 992.1
20260504224821 57 248 0.0 0.0 0.00 0.00 0.00 79 992.1
20260504224721 57 248 0.0 0.0 0.00 0.00 0.00 79 992.1
20260504224621 57 248 0.0 0.0 0.00 0.00 0.00 79 992.1
20260504224521 57 180 0.0 0.0 0.00 0.00 0.00 79 992.2
20260504224421 58 158 0.0 0.0 0.00 0.00 0.00 78 992.1
20260504224323 58 158 0.0 0.0 0.00 0.00 0.00 79 992.1
20260504224223 58 158 0.0 0.0 0.00 0.00 0.00 78 992.0
20260504224123 58 158 0.0 0.0 0.00 0.00 0.00 77 992.1
20260504224023 58 158 0.0 0.0 0.00 0.00 0.00 76 992.2
20260504223923 58 158 0.0 0.0 0.00 0.00 0.00 76 992.3
20260504223823 58 158 0.0 0.0 0.00 0.00 0.00 75 992.3
20260504223723 58 158 0.0 0.0 0.00 0.00 0.00 75 992.3
20260504223622 58 158 0.0 0.0 0.00 0.00 0.00 75 992.3
20260504223522 58 158 0.0 0.0 0.00 0.00 0.00 74 992.4
20260504223422 58 158 0.0 0.0 0.00 0.00 0.00 74 992.3
20260504223322 59 158 0.0 0.0 0.00 0.00 0.00 74 992.3
20260504223222 59 158 0.0 0.0 0.00 0.00 0.00 74 992.3
20260504223122 59 158 0.0 0.0 0.00 0.00 0.00 73 992.4
20260504223022 59 158 0.0 0.0 0.00 0.00 0.00 73 992.4
20260504222922 59 158 0.0 0.0 0.00 0.00 0.00 73 992.5
20260504222822 59 158 0.0 0.0 0.00 0.00 0.00 73 992.5
20260504222722 59 158 0.0 0.0 0.00 0.00 0.00 73 992.5
20260504222622 59 158 0.0 0.0 0.00 0.00 0.00 72 992.5
20260504222522 59 158 0.0 0.0 0.00 0.00 0.00 72 992.4
20260504222422 59 158 0.0 0.0 0.00 0.00 0.00 72 992.6
20260504222322 59 158 0.0 0.0 0.00 0.00 0.00 72 992.6
20260504222222 59 158 0.0 0.0 0.00 0.00 0.00 72 992.5
20260504222122 59 158 0.0 0.0 0.00 0.00 0.00 72 992.6
20260504222022 59 158 0.0 0.0 0.00 0.00 0.00 72 992.5
20260504221922 60 171 0.0 0.0 0.00 0.00 0.00 72 992.6
20260504221822 60 202 0.0 0.0 0.00 0.00 0.00 71 992.6
20260504221722 60 202 0.0 0.0 0.00 0.00 0.00 71 992.6
20260504221622 60 202 0.0 0.0 0.00 0.00 0.00 71 992.6
20260504221522 60 202 0.0 0.0 0.00 0.00 0.00 71 992.5
20260504221421 60 202 0.0 0.0 0.00 0.00 0.00 71 992.5
20260504221321 59 202 0.0 0.0 0.00 0.00 0.00 71 992.5
20260504221221 59 202 0.0 0.9 0.00 0.00 0.00 71 992.5
20260504221121 59 229 0.0 0.9 0.00 0.00 0.00 71 992.6
20260504221021 59 292 0.0 0.0 0.00 0.00 0.00 71 992.5
20260504220921 59 292 0.0 0.0 0.00 0.00 0.00 71 992.4
20260504220821 59 292 0.0 0.9 0.00 0.00 0.00 71 992.6
20260504220721 59 292 0.0 0.9 0.00 0.00 0.00 71 992.7
20260504220621 59 280 0.0 0.9 0.00 0.00 0.00 71 992.7
20260504220521 60 270 0.0 0.0 0.00 0.00 0.00 71 992.7
20260504220421 60 270 0.0 0.9 0.00 0.00 0.00 71 992.7
20260504220321 60 263 0.0 0.9 0.00 0.00 0.00 71 992.6
20260504220221 60 248 0.0 0.0 0.00 0.00 0.00 70 992.8
20260504220121 60 239 0.0 0.9 0.00 0.00 0.00 70 992.7
20260504220021 60 125 0.0 1.7 0.00 0.00 0.00 69 992.7
20260504215921 60 112 0.9 1.7 0.00 0.00 0.00 69 992.6
20260504215821 60 149 0.9 4.3 0.00 0.00 0.00 69 992.6
20260504215721 60 152 1.7 4.3 0.00 0.00 0.00 70 992.6
20260504215621 60 121 1.7 2.6 0.00 0.00 0.00 70 992.6
20260504215521 60 149 1.7 2.6 0.00 0.00 0.00 70 992.5
20260504215421 60 160 1.7 2.6 0.00 0.00 0.00 70 992.6
20260504215321 60 135 0.9 1.7 0.00 0.00 0.00 70 992.6
20260504215223 60 135 1.7 2.6 0.00 0.00 0.00 70 992.6
20260504215123 60 135 1.7 2.6 0.00 0.00 0.00 70 992.7
20260504215023 60 135 1.7 2.6 0.00 0.00 0.00 70 992.7
20260504214923 60 135 2.6 2.6 0.00 0.00 0.00 70 992.8
20260504214823 60 115 1.7 4.3 0.00 0.00 0.00 70 992.6
20260504214723 60 110 2.6 4.3 0.00 0.00 0.00 69 992.7
20260504214623 60 158 2.6 4.3 0.00 0.00 0.00 70 992.7
20260504214522 60 145 1.7 4.3 0.00 0.00 0.00 70 992.7
20260504214422 60 141 1.7 5.2 0.00 0.00 0.00 70 992.7
20260504214322 60 118 1.7 5.2 0.00 0.00 0.00 70 992.8
20260504214222 60 135 0.9 2.6 0.00 0.00 0.00 71 992.8
20260504214122 60 138 0.9 2.6 0.00 0.00 0.00 71 992.8
20260504214022 60 150 0.9 1.7 0.00 0.00 0.00 71 992.9
20260504213923 60 135 0.9 1.7 0.00 0.00 0.00 71 992.9
20260504213822 60 135 0.9 1.7 0.00 0.00 0.00 71 993.0
20260504213722 60 153 0.9 4.3 0.00 0.00 0.00 71 993.1
20260504213622 60 154 1.7 4.3 0.00 0.00 0.00 70 993.1
20260504213522 60 76 1.7 4.3 0.00 0.00 0.00 70 993.0
20260504213422 60 119 1.7 2.6 0.00 0.00 0.00 71 993.0
20260504213322 60 148 1.7 2.6 0.00 0.00 0.00 71 993.1
20260504213222 60 135 1.7 2.6 0.00 0.00 0.00 71 993.0
20260504213122 60 144 1.7 2.6 0.00 0.00 0.00 70 992.9
20260504213022 60 145 1.7 1.7 0.00 0.00 0.00 71 993.1
20260504212922 60 148 0.9 1.7 0.00 0.00 0.00 71 993.2
20260504212822 60 135 0.9 1.7 0.00 0.00 0.00 71 993.2